Time,TemperatureF,DewpointF,PressureIn,WindDirection,WindDirectionDegrees,WindSpeedMPH,WindSpeedGustMPH,Humidity,HourlyPrecipIn,Conditions,Clouds,dailyrainin,SoftwareType,DateUTC
2013-08-24 00:00:00,70.0,59.0,29.09,NNW,327,2.7,2.7,68,0.00,,---,0.00,VWS V14.01,2013-08-24 05:00:00,
2013-08-24 00:01:00,70.0,59.0,29.09,NNW,327,2.7,2.7,68,0.00,,---,0.00,VWS V14.01,2013-08-24 05:01:00,
2013-08-24 00:02:00,70.0,59.0,29.09,NNW,327,3.1,3.1,68,0.00,,---,0.00,VWS V14.01,2013-08-24 05:02:00,
2013-08-24 00:03:00,70.0,59.0,29.09,NNW,327,0.0,3.1,68,0.00,,---,0.00,VWS V14.01,2013-08-24 05:03:00,
2013-08-24 00:04:00,70.0,59.0,29.09,NNW,327,0.0,0.0,68,0.00,,---,0.00,VWS V14.01,2013-08-24 05:04:00,
2013-08-24 00:05:00,70.0,59.0,29.09,NNW,327,0.0,0.0,68,0.00,,---,0.00,VWS V14.01,2013-08-24 05:05:00,
2013-08-24 00:06:00,70.0,59.0,29.09,NNW,327,0.0,0.0,68,0.00,,---,0.00,VWS V14.01,2013-08-24 05:06:00,
2013-08-24 00:07:00,70.0,59.0,29.09,NNW,327,0.0,0.0,68,0.00,,---,0.00,VWS V14.01,2013-08-24 05:07:00,
2013-08-24 00:08:00,69.8,58.8,29.09,NNW,327,0.0,0.0,68,0.00,,---,0.00,VWS V14.01,2013-08-24 05:08:00,
2013-08-24 00:09:00,69.8,58.8,29.09,NNW,327,0.0,0.0,68,0.00,,---,0.00,VWS V14.01,2013-08-24 05:09:00,
2013-08-24 00:10:00,69.8,58.8,29.09,NNW,327,0.0,0.0,68,0.00,,---,0.00,VWS V14.01,2013-08-24 05:10:00,
2013-08-24 00:11:00,69.8,58.8,29.09,NNW,327,0.0,0.0,68,0.00,,---,0.00,VWS V14.01,2013-08-24 05:11:00,
2013-08-24 00:12:00,69.8,58.8,29.09,NNW,327,0.0,0.0,68,0.00,,---,0.00,VWS V14.01,2013-08-24 05:12:00,
2013-08-24 00:13:00,69.8,58.8,29.09,NNW,327,0.0,0.0,68,0.00,,---,0.00,VWS V14.01,2013-08-24 05:13:00,
2013-08-24 00:14:00,69.6,59.0,29.09,NNW,327,0.0,0.0,69,0.00,,---,0.00,VWS V14.01,2013-08-24 05:14:00,
2013-08-24 00:15:00,69.6,59.0,29.09,NNW,327,0.0,0.0,69,0.00,,---,0.00,VWS V14.01,2013-08-24 05:15:00,
2013-08-24 00:16:00,69.6,59.0,29.09,NNW,327,0.0,0.0,69,0.00,,---,0.00,VWS V14.01,2013-08-24 05:16:00,
2013-08-24 00:17:00,69.6,59.0,29.09,NNW,327,0.0,0.0,69,0.00,,---,0.00,VWS V14.01,2013-08-24 05:17:00,
2013-08-24 00:18:00,69.6,59.0,29.09,NNW,327,0.0,0.0,69,0.00,,---,0.00,VWS V14.01,2013-08-24 05:18:00,
2013-08-24 00:19:00,69.6,59.0,29.09,NNW,327,0.0,0.0,69,0.00,,---,0.00,VWS V14.01,2013-08-24 05:19:00,
2013-08-24 00:20:00,69.6,59.0,29.09,NNW,327,2.7,2.7,69,0.00,,---,0.00,VWS V14.01,2013-08-24 05:20:00,
2013-08-24 00:21:00,69.6,59.0,29.09,NNW,327,2.2,2.7,69,0.00,,---,0.00,VWS V14.01,2013-08-24 05:21:00,
2013-08-24 00:22:00,69.6,59.0,29.09,NNW,327,2.2,2.2,69,0.00,,---,0.00,VWS V14.01,2013-08-24 05:22:00,
2013-08-24 00:23:00,69.6,59.0,29.09,NNW,327,0.0,2.2,69,0.00,,---,0.00,VWS V14.01,2013-08-24 05:23:00,
2013-08-24 00:24:00,69.6,59.0,29.09,NNW,327,0.0,0.0,69,0.00,,---,0.00,VWS V14.01,2013-08-24 05:24:00,
2013-08-24 00:25:00,69.6,59.0,29.09,NNW,327,0.0,0.0,69,0.00,,---,0.00,VWS V14.01,2013-08-24 05:25:00,
2013-08-24 00:26:00,69.6,59.0,29.09,NNW,327,0.0,0.0,69,0.00,,---,0.00,VWS V14.01,2013-08-24 05:26:00,
2013-08-24 00:27:00,69.6,59.0,29.09,NNW,327,0.0,0.0,69,0.00,,---,0.00,VWS V14.01,2013-08-24 05:27:00,
2013-08-24 00:28:00,69.6,59.0,29.09,NNW,327,0.0,0.0,69,0.00,,---,0.00,VWS V14.01,2013-08-24 05:28:00,
2013-08-24 00:29:00,69.6,59.0,29.09,NNW,327,0.0,0.0,69,0.00,,---,0.00,VWS V14.01,2013-08-24 05:29:00,
2013-08-24 00:30:00,69.6,59.0,29.09,NNW,327,0.0,0.0,69,0.00,,---,0.00,VWS V14.01,2013-08-24 05:30:00,
2013-08-24 00:31:00,69.6,59.0,29.09,NNW,327,0.0,0.0,69,0.00,,---,0.00,VWS V14.01,2013-08-24 05:31:00,
2013-08-24 00:32:00,69.4,58.8,29.09,NNW,327,0.0,0.0,69,0.00,,---,0.00,VWS V14.01,2013-08-24 05:32:00,
2013-08-24 00:33:00,69.4,58.8,29.09,NNW,327,0.0,0.0,69,0.00,,---,0.00,VWS V14.01,2013-08-24 05:33:00,
2013-08-24 00:34:00,69.4,58.8,29.09,NNW,327,0.0,0.0,69,0.00,,---,0.00,VWS V14.01,2013-08-24 05:34:00,
2013-08-24 00:35:00,69.4,58.8,29.09,NNW,327,0.0,0.0,69,0.00,,---,0.00,VWS V14.01,2013-08-24 05:35:00,
2013-08-24 00:36:00,69.4,58.8,29.09,NNW,327,0.0,0.0,69,0.00,,---,0.00,VWS V14.01,2013-08-24 05:36:00,
2013-08-24 00:37:00,69.4,58.8,29.09,NNW,327,0.0,0.0,69,0.00,,---,0.00,VWS V14.01,2013-08-24 05:37:00,
2013-08-24 00:38:00,69.4,58.8,29.09,NNW,327,0.0,0.0,69,0.00,,---,0.00,VWS V14.01,2013-08-24 05:38:00,
2013-08-24 00:39:00,69.3,58.7,29.09,NNW,327,0.0,0.0,69,0.00,,---,0.00,VWS V14.01,2013-08-24 05:39:00,
2013-08-24 00:40:00,69.3,58.7,29.09,NNW,327,0.0,0.0,69,0.00,,---,0.00,VWS V14.01,2013-08-24 05:40:00,
2013-08-24 00:41:00,69.3,58.7,29.09,NNW,327,0.0,0.0,69,0.00,,---,0.00,VWS V14.01,2013-08-24 05:41:00,
2013-08-24 00:42:00,69.3,58.7,29.09,NNW,327,0.0,0.0,69,0.00,,---,0.00,VWS V14.01,2013-08-24 05:42:00,
2013-08-24 00:43:00,69.3,58.7,29.09,NNW,327,0.0,0.0,69,0.00,,---,0.00,VWS V14.01,2013-08-24 05:43:00,
2013-08-24 00:44:00,69.3,58.7,29.09,NNW,327,0.0,0.0,69,0.00,,---,0.00,VWS V14.01,2013-08-24 05:44:00,
2013-08-24 00:45:00,69.1,58.5,29.09,NNW,327,0.0,0.0,69,0.00,,---,0.00,VWS V14.01,2013-08-24 05:45:00,
2013-08-24 00:46:00,69.1,58.5,29.09,NNW,327,0.0,0.0,69,0.00,,---,0.00,VWS V14.01,2013-08-24 05:46:00,
2013-08-24 00:47:00,69.1,58.5,29.09,NNW,327,0.0,0.0,69,0.00,,---,0.00,VWS V14.01,2013-08-24 05:47:00,
2013-08-24 00:48:00,69.1,58.5,29.09,NNW,327,0.0,0.0,69,0.00,,---,0.00,VWS V14.01,2013-08-24 05:48:00,
2013-08-24 00:49:00,69.1,58.5,29.09,NNW,327,0.0,0.0,69,0.00,,---,0.00,VWS V14.01,2013-08-24 05:49:00,
2013-08-24 00:50:00,69.1,58.5,29.09,NNW,327,0.0,0.0,69,0.00,,---,0.00,VWS V14.01,2013-08-24 05:50:00,
2013-08-24 00:51:00,69.1,58.5,29.09,NNW,327,0.0,0.0,69,0.00,,---,0.00,VWS V14.01,2013-08-24 05:51:00,
2013-08-24 00:52:00,69.1,58.5,29.09,NNW,327,0.0,0.0,69,0.00,,---,0.00,VWS V14.01,2013-08-24 05:52:00,
2013-08-24 00:53:00,69.1,58.5,29.09,NNW,327,0.0,0.0,69,0.00,,---,0.00,VWS V14.01,2013-08-24 05:53:00,
2013-08-24 00:54:00,68.9,58.3,29.09,NNW,327,0.0,0.0,69,0.00,,---,0.00,VWS V14.01,2013-08-24 05:54:00,
2013-08-24 00:55:00,68.9,58.3,29.09,NNW,327,0.0,0.0,69,0.00,,---,0.00,VWS V14.01,2013-08-24 05:55:00,
2013-08-24 00:56:00,68.9,58.3,29.09,NNW,327,0.0,0.0,69,0.00,,---,0.00,VWS V14.01,2013-08-24 05:56:00,
2013-08-24 00:57:00,68.9,58.3,29.09,NNW,327,0.0,0.0,69,0.00,,---,0.00,VWS V14.01,2013-08-24 05:57:00,
2013-08-24 00:58:00,68.9,58.3,29.09,NNW,327,0.0,0.0,69,0.00,,---,0.00,VWS V14.01,2013-08-24 05:58:00,
2013-08-24 00:59:00,68.9,58.7,29.09,NNW,327,0.0,0.0,70,0.00,,---,0.00,VWS V14.01,2013-08-24 05:59:00,
2013-08-24 01:00:00,68.9,58.7,29.09,NNW,327,0.0,0.0,70,0.00,,---,0.00,VWS V14.01,2013-08-24 06:00:00,
2013-08-24 01:01:00,68.9,58.7,29.09,NNW,327,0.0,0.0,70,0.00,,---,0.00,VWS V14.01,2013-08-24 06:01:00,
2013-08-24 01:02:00,68.9,58.7,29.09,NNW,327,0.0,0.0,70,0.00,,---,0.00,VWS V14.01,2013-08-24 06:02:00,
2013-08-24 01:03:00,68.9,58.7,29.09,NNW,327,0.0,0.0,70,0.00,,---,0.00,VWS V14.01,2013-08-24 06:03:00,
2013-08-24 01:04:00,68.9,58.7,29.09,NNW,327,0.0,0.0,70,0.00,,---,0.00,VWS V14.01,2013-08-24 06:04:00,
2013-08-24 01:05:00,68.7,58.5,29.09,NNW,327,0.0,0.0,70,0.00,,---,0.00,VWS V14.01,2013-08-24 06:05:00,
2013-08-24 01:06:00,68.7,58.5,29.09,NNW,327,0.0,0.0,70,0.00,,---,0.00,VWS V14.01,2013-08-24 06:06:00,
2013-08-24 01:07:00,68.7,58.5,29.09,NNW,327,0.0,0.0,70,0.00,,---,0.00,VWS V14.01,2013-08-24 06:07:00,
2013-08-24 01:08:00,68.7,58.5,29.09,NNW,327,0.0,0.0,70,0.00,,---,0.00,VWS V14.01,2013-08-24 06:08:00,
2013-08-24 01:09:00,68.7,58.5,29.09,NNW,327,0.0,0.0,70,0.00,,---,0.00,VWS V14.01,2013-08-24 06:09:00,
2013-08-24 01:10:00,68.7,58.5,29.09,NNW,327,0.0,0.0,70,0.00,,---,0.00,VWS V14.01,2013-08-24 06:10:00,
2013-08-24 01:11:00,68.7,58.5,29.09,NNW,327,0.0,0.0,70,0.00,,---,0.00,VWS V14.01,2013-08-24 06:11:00,
2013-08-24 01:12:00,68.7,58.5,29.09,NNW,327,0.0,0.0,70,0.00,,---,0.00,VWS V14.01,2013-08-24 06:12:00,
2013-08-24 01:13:00,68.7,58.5,29.09,NNW,327,0.0,0.0,70,0.00,,---,0.00,VWS V14.01,2013-08-24 06:13:00,
2013-08-24 01:14:00,68.7,58.5,29.09,NNW,327,0.0,0.0,70,0.00,,---,0.00,VWS V14.01,2013-08-24 06:14:00,
2013-08-24 01:15:00,68.7,58.5,29.09,NNW,327,0.0,0.0,70,0.00,,---,0.00,VWS V14.01,2013-08-24 06:15:00,
2013-08-24 01:16:00,68.7,58.5,29.09,NNW,327,0.0,0.0,70,0.00,,---,0.00,VWS V14.01,2013-08-24 06:16:00,
2013-08-24 01:17:00,68.5,58.4,29.09,NNW,327,0.0,0.0,70,0.00,,---,0.00,VWS V14.01,2013-08-24 06:17:00,
2013-08-24 01:18:00,68.5,58.4,29.09,NNW,327,0.0,0.0,70,0.00,,---,0.00,VWS V14.01,2013-08-24 06:18:00,
2013-08-24 01:19:00,68.5,58.4,29.09,NNW,327,0.0,0.0,70,0.00,,---,0.00,VWS V14.01,2013-08-24 06:19:00,
2013-08-24 01:20:00,68.5,58.4,29.09,NNW,327,0.0,0.0,70,0.00,,---,0.00,VWS V14.01,2013-08-24 06:20:00,
2013-08-24 01:21:00,68.5,58.4,29.09,NNW,327,0.0,0.0,70,0.00,,---,0.00,VWS V14.01,2013-08-24 06:21:00,
2013-08-24 01:22:00,68.5,58.4,29.09,NNW,327,0.0,0.0,70,0.00,,---,0.00,VWS V14.01,2013-08-24 06:22:00,
2013-08-24 01:23:00,68.5,58.8,29.09,NNW,327,0.0,0.0,71,0.00,,---,0.00,VWS V14.01,2013-08-24 06:23:00,
2013-08-24 01:24:00,68.5,58.8,29.09,NNW,327,0.0,0.0,71,0.00,,---,0.00,VWS V14.01,2013-08-24 06:24:00,
2013-08-24 01:25:00,68.5,58.8,29.09,NNW,327,0.0,0.0,71,0.00,,---,0.00,VWS V14.01,2013-08-24 06:25:00,
2013-08-24 01:26:00,68.5,58.8,29.09,NNW,327,0.0,0.0,71,0.00,,---,0.00,VWS V14.01,2013-08-24 06:26:00,
2013-08-24 01:27:00,68.5,58.8,29.09,NNW,327,0.0,0.0,71,0.00,,---,0.00,VWS V14.01,2013-08-24 06:27:00,
2013-08-24 01:28:00,68.5,58.8,29.09,NNW,327,0.0,0.0,71,0.00,,---,0.00,VWS V14.01,2013-08-24 06:28:00,
2013-08-24 01:29:00,68.5,58.8,29.09,NNW,327,0.0,0.0,71,0.00,,---,0.00,VWS V14.01,2013-08-24 06:29:00,
2013-08-24 01:30:00,68.5,58.8,29.09,NNW,327,0.0,0.0,71,0.00,,---,0.00,VWS V14.01,2013-08-24 06:30:00,
2013-08-24 01:31:00,68.4,58.6,29.09,NNW,327,0.0,0.0,71,0.00,,---,0.00,VWS V14.01,2013-08-24 06:31:00,
2013-08-24 01:32:00,68.4,58.6,29.09,NNW,327,0.0,0.0,71,0.00,,---,0.00,VWS V14.01,2013-08-24 06:32:00,
2013-08-24 01:33:00,68.4,58.6,29.09,NNW,327,0.0,0.0,71,0.00,,---,0.00,VWS V14.01,2013-08-24 06:33:00,
2013-08-24 01:34:00,68.4,58.6,29.09,NNW,327,0.0,0.0,71,0.00,,---,0.00,VWS V14.01,2013-08-24 06:34:00,
2013-08-24 01:35:00,68.4,58.6,29.09,NNW,327,0.0,0.0,71,0.00,,---,0.00,VWS V14.01,2013-08-24 06:35:00,
2013-08-24 01:36:00,68.4,58.6,29.09,NNW,327,0.0,0.0,71,0.00,,---,0.00,VWS V14.01,2013-08-24 06:36:00,
2013-08-24 01:37:00,68.4,58.6,29.09,NNW,327,0.0,0.0,71,0.00,,---,0.00,VWS V14.01,2013-08-24 06:37:00,
2013-08-24 01:38:00,68.4,58.6,29.09,NNW,327,0.0,0.0,71,0.00,,---,0.00,VWS V14.01,2013-08-24 06:38:00,
2013-08-24 01:39:00,68.4,58.6,29.09,NNW,327,0.0,0.0,71,0.00,,---,0.00,VWS V14.01,2013-08-24 06:39:00,
2013-08-24 01:40:00,68.2,58.4,29.09,NNW,327,0.0,0.0,71,0.00,,---,0.00,VWS V14.01,2013-08-24 06:40:00,
2013-08-24 01:41:00,68.2,58.4,29.09,NNW,327,0.0,0.0,71,0.00,,---,0.00,VWS V14.01,2013-08-24 06:41:00,
2013-08-24 01:42:00,68.2,58.4,29.09,NNW,327,0.0,0.0,71,0.00,,---,0.00,VWS V14.01,2013-08-24 06:42:00,
2013-08-24 01:43:00,68.2,58.4,29.09,NNW,327,0.0,0.0,71,0.00,,---,0.00,VWS V14.01,2013-08-24 06:43:00,
2013-08-24 01:44:00,68.2,58.4,29.09,NNW,327,0.0,0.0,71,0.00,,---,0.00,VWS V14.01,2013-08-24 06:44:00,
2013-08-24 01:45:00,68.2,58.4,29.09,NNW,327,0.0,0.0,71,0.00,,---,0.00,VWS V14.01,2013-08-24 06:45:00,
2013-08-24 01:46:00,68.2,58.4,29.09,NNW,327,0.0,0.0,71,0.00,,---,0.00,VWS V14.01,2013-08-24 06:46:00,
2013-08-24 01:47:00,68.2,58.4,29.09,NNW,327,0.0,0.0,71,0.00,,---,0.00,VWS V14.01,2013-08-24 06:47:00,
2013-08-24 01:48:00,68.2,58.4,29.09,NNW,327,0.0,0.0,71,0.00,,---,0.00,VWS V14.01,2013-08-24 06:48:00,
2013-08-24 01:49:00,68.2,58.8,29.09,NNW,327,0.0,0.0,72,0.00,,---,0.00,VWS V14.01,2013-08-24 06:49:00,
2013-08-24 01:50:00,68.2,58.8,29.09,NNW,327,0.0,0.0,72,0.00,,---,0.00,VWS V14.01,2013-08-24 06:50:00,
2013-08-24 01:51:00,68.2,58.8,29.09,NNW,327,0.0,0.0,72,0.00,,---,0.00,VWS V14.01,2013-08-24 06:51:00,
2013-08-24 01:52:00,68.2,58.8,29.09,NNW,327,0.0,0.0,72,0.00,,---,0.00,VWS V14.01,2013-08-24 06:52:00,
2013-08-24 01:53:00,68.2,58.8,29.09,NNW,327,0.0,0.0,72,0.00,,---,0.00,VWS V14.01,2013-08-24 06:53:00,
2013-08-24 01:54:00,68.2,58.8,29.09,NNW,327,0.0,0.0,72,0.00,,---,0.00,VWS V14.01,2013-08-24 06:54:00,
2013-08-24 01:55:00,68.2,58.8,29.09,NNW,327,0.0,0.0,72,0.00,,---,0.00,VWS V14.01,2013-08-24 06:55:00,
2013-08-24 01:56:00,68.2,58.8,29.09,NNW,327,0.0,0.0,72,0.00,,---,0.00,VWS V14.01,2013-08-24 06:56:00,
2013-08-24 01:57:00,68.2,58.8,29.09,NNW,327,0.0,0.0,72,0.00,,---,0.00,VWS V14.01,2013-08-24 06:57:00,
2013-08-24 01:58:00,68.0,58.7,29.09,NNW,327,0.0,0.0,72,0.00,,---,0.00,VWS V14.01,2013-08-24 06:58:00,
2013-08-24 01:59:00,68.0,58.7,29.09,NNW,327,0.0,0.0,72,0.00,,---,0.00,VWS V14.01,2013-08-24 06:59:00,
2013-08-24 02:00:00,68.0,58.7,29.09,NNW,327,0.0,0.0,72,0.00,,---,0.00,VWS V14.01,2013-08-24 07:00:00,
2013-08-24 02:01:00,68.0,58.7,29.09,NNW,327,0.0,0.0,72,0.00,,---,0.00,VWS V14.01,2013-08-24 07:01:00,
2013-08-24 02:02:00,68.0,58.7,29.09,NNW,327,0.0,0.0,72,0.00,,---,0.00,VWS V14.01,2013-08-24 07:02:00,
2013-08-24 02:03:00,68.0,58.7,29.09,NNW,327,0.0,0.0,72,0.00,,---,0.00,VWS V14.01,2013-08-24 07:03:00,
2013-08-24 02:04:00,68.0,58.7,29.09,NNW,327,2.2,2.2,72,0.00,,---,0.00,VWS V14.01,2013-08-24 07:04:00,
2013-08-24 02:05:00,68.0,58.7,29.09,NNW,327,0.0,2.2,72,0.00,,---,0.00,VWS V14.01,2013-08-24 07:05:00,
2013-08-24 02:06:00,68.0,58.7,29.09,NNW,327,0.0,0.0,72,0.00,,---,0.00,VWS V14.01,2013-08-24 07:06:00,
2013-08-24 02:07:00,68.0,58.7,29.09,NNW,327,0.0,0.0,72,0.00,,---,0.00,VWS V14.01,2013-08-24 07:07:00,
2013-08-24 02:08:00,68.0,59.0,29.09,NNW,327,0.0,0.0,73,0.00,,---,0.00,VWS V14.01,2013-08-24 07:08:00,
2013-08-24 02:09:00,68.0,59.0,29.09,NNW,327,0.0,0.0,73,0.00,,---,0.00,VWS V14.01,2013-08-24 07:09:00,
2013-08-24 02:10:00,68.0,59.0,29.09,NNW,327,0.0,0.0,73,0.00,,---,0.00,VWS V14.01,2013-08-24 07:10:00,
2013-08-24 02:11:00,68.0,59.0,29.09,NNW,327,0.0,0.0,73,0.00,,---,0.00,VWS V14.01,2013-08-24 07:11:00,
2013-08-24 02:12:00,68.0,59.0,29.09,NNW,327,0.0,0.0,73,0.00,,---,0.00,VWS V14.01,2013-08-24 07:12:00,
2013-08-24 02:13:00,68.0,59.0,29.09,NNW,327,0.0,0.0,73,0.00,,---,0.00,VWS V14.01,2013-08-24 07:13:00,
2013-08-24 02:14:00,68.0,59.0,29.09,NNW,327,0.0,0.0,73,0.00,,---,0.00,VWS V14.01,2013-08-24 07:14:00,
2013-08-24 02:15:00,68.0,59.4,29.09,NNW,327,0.0,0.0,74,0.00,,---,0.00,VWS V14.01,2013-08-24 07:15:00,
2013-08-24 02:16:00,68.0,59.4,29.09,NNW,327,0.0,0.0,74,0.00,,---,0.00,VWS V14.01,2013-08-24 07:16:00,
2013-08-24 02:17:00,68.0,59.4,29.09,NNW,327,0.0,0.0,74,0.00,,---,0.00,VWS V14.01,2013-08-24 07:17:00,
2013-08-24 02:18:00,68.0,59.4,29.09,NNW,327,0.0,0.0,74,0.00,,---,0.00,VWS V14.01,2013-08-24 07:18:00,
2013-08-24 02:19:00,68.0,59.4,29.09,NNW,327,0.0,0.0,74,0.00,,---,0.00,VWS V14.01,2013-08-24 07:19:00,
2013-08-24 02:20:00,68.0,59.4,29.09,NNW,327,0.0,0.0,74,0.00,,---,0.00,VWS V14.01,2013-08-24 07:20:00,
2013-08-24 02:21:00,68.0,59.4,29.09,NNW,327,0.0,0.0,74,0.00,,---,0.00,VWS V14.01,2013-08-24 07:21:00,
2013-08-24 02:22:00,68.0,59.4,29.09,NNW,327,0.0,0.0,74,0.00,,---,0.00,VWS V14.01,2013-08-24 07:22:00,
2013-08-24 02:23:00,68.0,59.4,29.09,NNW,327,0.0,0.0,74,0.00,,---,0.00,VWS V14.01,2013-08-24 07:23:00,
2013-08-24 02:24:00,68.0,59.4,29.09,NNW,327,0.0,0.0,74,0.00,,---,0.00,VWS V14.01,2013-08-24 07:24:00,
2013-08-24 02:25:00,68.0,59.4,29.09,NNW,327,0.0,0.0,74,0.00,,---,0.00,VWS V14.01,2013-08-24 07:25:00,
2013-08-24 02:26:00,68.0,59.8,29.09,NNW,327,0.0,0.0,75,0.00,,---,0.00,VWS V14.01,2013-08-24 07:26:00,
2013-08-24 02:27:00,68.0,59.8,29.09,NNW,327,0.0,0.0,75,0.00,,---,0.00,VWS V14.01,2013-08-24 07:27:00,
2013-08-24 02:28:00,68.0,59.8,29.09,NNW,327,0.0,0.0,75,0.00,,---,0.00,VWS V14.01,2013-08-24 07:28:00,
2013-08-24 02:29:00,68.0,59.8,29.09,NNW,327,0.0,0.0,75,0.00,,---,0.00,VWS V14.01,2013-08-24 07:29:00,
2013-08-24 02:30:00,67.8,59.6,29.09,NNW,327,0.0,0.0,75,0.00,,---,0.00,VWS V14.01,2013-08-24 07:30:00,
2013-08-24 02:31:00,67.8,59.6,29.09,NNW,327,0.0,0.0,75,0.00,,---,0.00,VWS V14.01,2013-08-24 07:31:00,
2013-08-24 02:32:00,67.8,59.6,29.09,NNW,327,0.0,0.0,75,0.00,,---,0.00,VWS V14.01,2013-08-24 07:32:00,
2013-08-24 02:33:00,67.8,59.6,29.09,NNW,327,0.0,0.0,75,0.00,,---,0.00,VWS V14.01,2013-08-24 07:33:00,
2013-08-24 02:34:00,67.8,59.6,29.09,NNW,327,0.0,0.0,75,0.00,,---,0.00,VWS V14.01,2013-08-24 07:34:00,
2013-08-24 02:35:00,67.8,60.0,29.09,NNW,327,0.0,0.0,76,0.00,,---,0.00,VWS V14.01,2013-08-24 07:35:00,
2013-08-24 02:36:00,67.8,60.0,29.09,NNW,327,0.0,0.0,76,0.00,,---,0.00,VWS V14.01,2013-08-24 07:36:00,
2013-08-24 02:37:00,67.8,60.0,29.09,NNW,327,0.0,0.0,76,0.00,,---,0.00,VWS V14.01,2013-08-24 07:37:00,
2013-08-24 02:38:00,67.8,60.0,29.09,NNW,327,0.0,0.0,76,0.00,,---,0.00,VWS V14.01,2013-08-24 07:38:00,
2013-08-24 02:39:00,67.8,60.0,29.09,NNW,327,0.0,0.0,76,0.00,,---,0.00,VWS V14.01,2013-08-24 07:39:00,
2013-08-24 02:40:00,67.8,60.0,29.09,NNW,327,0.0,0.0,76,0.00,,---,0.00,VWS V14.01,2013-08-24 07:40:00,
2013-08-24 02:41:00,67.8,60.0,29.09,NNW,327,0.0,0.0,76,0.00,,---,0.00,VWS V14.01,2013-08-24 07:41:00,
2013-08-24 02:42:00,67.8,60.0,29.09,NNW,327,0.0,0.0,76,0.00,,---,0.00,VWS V14.01,2013-08-24 07:42:00,
2013-08-24 02:43:00,67.8,60.0,29.09,NNW,327,0.0,0.0,76,0.00,,---,0.00,VWS V14.01,2013-08-24 07:43:00,
2013-08-24 02:44:00,67.8,60.0,29.09,NNW,327,0.0,0.0,76,0.00,,---,0.00,VWS V14.01,2013-08-24 07:44:00,
2013-08-24 02:45:00,67.8,60.0,29.09,NNW,327,0.0,0.0,76,0.00,,---,0.00,VWS V14.01,2013-08-24 07:45:00,
2013-08-24 02:46:00,67.8,60.0,29.09,NNW,327,0.0,0.0,76,0.00,,---,0.00,VWS V14.01,2013-08-24 07:46:00,
2013-08-24 02:47:00,67.8,60.0,29.09,NNW,327,0.0,0.0,76,0.00,,---,0.00,VWS V14.01,2013-08-24 07:47:00,
2013-08-24 02:48:00,67.8,60.0,29.09,NNW,327,0.0,0.0,76,0.00,,---,0.00,VWS V14.01,2013-08-24 07:48:00,
2013-08-24 02:49:00,67.8,60.0,29.09,NNW,327,0.0,0.0,76,0.00,,---,0.00,VWS V14.01,2013-08-24 07:49:00,
2013-08-24 02:50:00,67.6,59.8,29.09,NNW,327,0.0,0.0,76,0.00,,---,0.00,VWS V14.01,2013-08-24 07:50:00,
2013-08-24 02:51:00,67.6,59.8,29.09,NNW,327,0.0,0.0,76,0.00,,---,0.00,VWS V14.01,2013-08-24 07:51:00,
2013-08-24 02:52:00,67.6,59.8,29.09,NNW,327,0.0,0.0,76,0.00,,---,0.00,VWS V14.01,2013-08-24 07:52:00,
2013-08-24 02:53:00,67.6,59.8,29.09,NNW,327,0.0,0.0,76,0.00,,---,0.00,VWS V14.01,2013-08-24 07:53:00,
2013-08-24 02:54:00,67.6,59.8,29.09,NNW,327,0.0,0.0,76,0.00,,---,0.00,VWS V14.01,2013-08-24 07:54:00,
2013-08-24 02:55:00,67.6,60.2,29.09,NNW,327,0.0,0.0,77,0.00,,---,0.00,VWS V14.01,2013-08-24 07:55:00,
2013-08-24 02:56:00,67.6,60.2,29.09,NNW,327,0.0,0.0,77,0.00,,---,0.00,VWS V14.01,2013-08-24 07:56:00,
2013-08-24 02:57:00,67.6,60.2,29.09,NNW,327,0.0,0.0,77,0.00,,---,0.00,VWS V14.01,2013-08-24 07:57:00,
2013-08-24 02:58:00,67.6,59.8,29.09,NNW,327,0.0,0.0,76,0.00,,---,0.00,VWS V14.01,2013-08-24 07:58:00,
2013-08-24 02:59:00,67.6,59.8,29.09,NNW,327,0.0,0.0,76,0.00,,---,0.00,VWS V14.01,2013-08-24 07:59:00,
2013-08-24 03:00:00,67.6,59.8,29.09,NNW,327,0.0,0.0,76,0.00,,---,0.00,VWS V14.01,2013-08-24 08:00:00,
2013-08-24 03:01:00,67.5,59.6,29.09,NNW,327,0.0,0.0,76,0.00,,---,0.00,VWS V14.01,2013-08-24 08:01:00,
2013-08-24 03:02:00,67.5,59.6,29.09,NNW,327,0.0,0.0,76,0.00,,---,0.00,VWS V14.01,2013-08-24 08:02:00,
2013-08-24 03:03:00,67.5,59.6,29.09,NNW,327,0.0,0.0,76,0.00,,---,0.00,VWS V14.01,2013-08-24 08:03:00,
2013-08-24 03:04:00,67.5,59.6,29.09,NNW,327,0.0,0.0,76,0.00,,---,0.00,VWS V14.01,2013-08-24 08:04:00,
2013-08-24 03:05:00,67.5,59.6,29.09,NNW,327,0.0,0.0,76,0.00,,---,0.00,VWS V14.01,2013-08-24 08:05:00,
2013-08-24 03:06:00,67.5,59.6,29.09,NNW,327,0.0,2.2,76,0.00,,---,0.00,VWS V14.01,2013-08-24 08:06:00,
2013-08-24 03:07:00,67.5,60.0,29.09,NNW,327,0.0,0.0,77,0.00,,---,0.00,VWS V14.01,2013-08-24 08:07:00,
2013-08-24 03:08:00,67.5,60.0,29.09,NNW,327,0.0,0.0,77,0.00,,---,0.00,VWS V14.01,2013-08-24 08:08:00,
2013-08-24 03:09:00,67.5,60.0,29.09,NNW,327,0.0,0.0,77,0.00,,---,0.00,VWS V14.01,2013-08-24 08:09:00,
2013-08-24 03:10:00,67.5,60.0,29.09,NNW,327,0.0,0.0,77,0.00,,---,0.00,VWS V14.01,2013-08-24 08:10:00,
2013-08-24 03:11:00,67.5,60.0,29.09,NW,326,0.0,0.0,77,0.00,,---,0.00,VWS V14.01,2013-08-24 08:11:00,
2013-08-24 03:12:00,67.5,60.0,29.09,NNW,327,0.0,0.0,77,0.00,,---,0.00,VWS V14.01,2013-08-24 08:12:00,
2013-08-24 03:13:00,67.5,60.0,29.09,NNW,327,0.0,0.0,77,0.00,,---,0.00,VWS V14.01,2013-08-24 08:13:00,
2013-08-24 03:14:00,67.5,60.0,29.09,NNW,327,0.0,0.0,77,0.00,,---,0.00,VWS V14.01,2013-08-24 08:14:00,
2013-08-24 03:15:00,67.5,60.0,29.09,NNW,327,0.0,0.0,77,0.00,,---,0.00,VWS V14.01,2013-08-24 08:15:00,
2013-08-24 03:16:00,67.5,60.0,29.09,NNW,327,0.0,0.0,77,0.00,,---,0.00,VWS V14.01,2013-08-24 08:16:00,
2013-08-24 03:17:00,67.5,60.0,29.09,NNW,327,0.0,0.0,77,0.00,,---,0.00,VWS V14.01,2013-08-24 08:17:00,
2013-08-24 03:18:00,67.5,60.0,29.09,NNW,327,0.0,0.0,77,0.00,,---,0.00,VWS V14.01,2013-08-24 08:18:00,
2013-08-24 03:19:00,67.5,60.0,29.09,NNW,327,0.0,0.0,77,0.00,,---,0.00,VWS V14.01,2013-08-24 08:19:00,
2013-08-24 03:20:00,67.5,60.0,29.09,NNW,327,0.0,0.0,77,0.00,,---,0.00,VWS V14.01,2013-08-24 08:20:00,
2013-08-24 03:21:00,67.5,60.0,29.09,NNW,327,0.0,0.0,77,0.00,,---,0.00,VWS V14.01,2013-08-24 08:21:00,
2013-08-24 03:22:00,67.5,60.0,29.09,NNW,327,0.0,0.0,77,0.00,,---,0.00,VWS V14.01,2013-08-24 08:22:00,
2013-08-24 03:23:00,67.5,60.0,29.09,NNW,327,0.0,0.0,77,0.00,,---,0.00,VWS V14.01,2013-08-24 08:23:00,
2013-08-24 03:24:00,67.5,60.0,29.09,NNW,327,0.0,0.0,77,0.00,,---,0.00,VWS V14.01,2013-08-24 08:24:00,
2013-08-24 03:25:00,67.5,60.0,29.09,NNW,327,0.0,0.0,77,0.00,,---,0.00,VWS V14.01,2013-08-24 08:25:00,
2013-08-24 03:26:00,67.5,60.0,29.09,NNW,327,0.0,0.0,77,0.00,,---,0.00,VWS V14.01,2013-08-24 08:26:00,
2013-08-24 03:27:00,67.3,59.8,29.09,NNW,327,0.0,0.0,77,0.00,,---,0.00,VWS V14.01,2013-08-24 08:27:00,
2013-08-24 03:28:00,67.3,59.8,29.09,NNW,327,0.0,0.0,77,0.00,,---,0.00,VWS V14.01,2013-08-24 08:28:00,
2013-08-24 03:29:00,67.3,59.8,29.09,NNW,327,0.0,0.0,77,0.00,,---,0.00,VWS V14.01,2013-08-24 08:29:00,
2013-08-24 03:30:00,67.3,59.8,29.09,NNW,327,0.0,0.0,77,0.00,,---,0.00,VWS V14.01,2013-08-24 08:30:00,
2013-08-24 03:31:00,67.3,59.8,29.09,NNW,327,0.0,0.0,77,0.00,,---,0.00,VWS V14.01,2013-08-24 08:31:00,
2013-08-24 03:32:00,67.3,59.8,29.09,NNW,327,0.0,0.0,77,0.00,,---,0.00,VWS V14.01,2013-08-24 08:32:00,
2013-08-24 03:33:00,67.1,59.7,29.09,NNW,327,0.0,0.0,77,0.00,,---,0.00,VWS V14.01,2013-08-24 08:33:00,
2013-08-24 03:34:00,67.1,59.7,29.09,NNW,327,0.0,0.0,77,0.00,,---,0.00,VWS V14.01,2013-08-24 08:34:00,
2013-08-24 03:35:00,67.1,59.7,29.09,NNW,327,0.0,0.0,77,0.00,,---,0.00,VWS V14.01,2013-08-24 08:35:00,
2013-08-24 03:36:00,67.1,59.7,29.09,NNW,327,0.0,0.0,77,0.00,,---,0.00,VWS V14.01,2013-08-24 08:36:00,
2013-08-24 03:37:00,67.1,59.7,29.09,NNW,327,0.0,0.0,77,0.00,,---,0.00,VWS V14.01,2013-08-24 08:37:00,
2013-08-24 03:38:00,67.1,59.7,29.09,NNW,327,0.0,0.0,77,0.00,,---,0.00,VWS V14.01,2013-08-24 08:38:00,
2013-08-24 03:39:00,67.1,60.0,29.09,NNW,327,0.0,0.0,78,0.00,,---,0.00,VWS V14.01,2013-08-24 08:39:00,
2013-08-24 03:40:00,67.1,60.0,29.09,NNW,327,0.0,0.0,78,0.00,,---,0.00,VWS V14.01,2013-08-24 08:40:00,
2013-08-24 03:41:00,67.1,60.0,29.09,NNW,327,0.0,0.0,78,0.00,,---,0.00,VWS V14.01,2013-08-24 08:41:00,
2013-08-24 03:42:00,67.1,60.0,29.09,NNW,327,0.0,0.0,78,0.00,,---,0.00,VWS V14.01,2013-08-24 08:42:00,
2013-08-24 03:43:00,67.1,60.0,29.09,NNW,327,0.0,0.0,78,0.00,,---,0.00,VWS V14.01,2013-08-24 08:43:00,
2013-08-24 03:44:00,67.1,60.0,29.09,NNW,327,0.0,0.0,78,0.00,,---,0.00,VWS V14.01,2013-08-24 08:44:00,
2013-08-24 03:45:00,67.1,60.0,29.09,NNW,327,0.0,0.0,78,0.00,,---,0.00,VWS V14.01,2013-08-24 08:45:00,
2013-08-24 03:46:00,67.1,60.0,29.09,NNW,327,0.0,0.0,78,0.00,,---,0.00,VWS V14.01,2013-08-24 08:46:00,
2013-08-24 03:47:00,67.1,60.0,29.09,NNW,327,0.0,0.0,78,0.00,,---,0.00,VWS V14.01,2013-08-24 08:47:00,
2013-08-24 03:48:00,67.1,60.0,29.09,NNW,327,0.0,0.0,78,0.00,,---,0.00,VWS V14.01,2013-08-24 08:48:00,
2013-08-24 03:49:00,67.1,60.0,29.09,NNW,327,0.0,0.0,78,0.00,,---,0.00,VWS V14.01,2013-08-24 08:49:00,
2013-08-24 03:50:00,67.1,60.0,29.09,NNW,327,0.0,0.0,78,0.00,,---,0.00,VWS V14.01,2013-08-24 08:50:00,
2013-08-24 03:51:00,67.1,60.0,29.09,NNW,327,0.0,0.0,78,0.00,,---,0.00,VWS V14.01,2013-08-24 08:51:00,
2013-08-24 03:52:00,67.1,60.0,29.09,NNW,327,0.0,0.0,78,0.00,,---,0.00,VWS V14.01,2013-08-24 08:52:00,
2013-08-24 03:53:00,67.1,60.0,29.09,NNW,327,0.0,0.0,78,0.00,,---,0.00,VWS V14.01,2013-08-24 08:53:00,
2013-08-24 03:54:00,67.1,60.0,29.09,NNW,327,0.0,0.0,78,0.00,,---,0.00,VWS V14.01,2013-08-24 08:54:00,
2013-08-24 03:55:00,67.1,60.0,29.09,NNW,327,0.0,0.0,78,0.00,,---,0.00,VWS V14.01,2013-08-24 08:55:00,
2013-08-24 03:56:00,66.9,59.8,29.09,NNW,327,0.0,0.0,78,0.00,,---,0.00,VWS V14.01,2013-08-24 08:56:00,
2013-08-24 03:57:00,66.9,59.8,29.09,NNW,327,0.0,0.0,78,0.00,,---,0.00,VWS V14.01,2013-08-24 08:57:00,
2013-08-24 03:58:00,66.9,59.8,29.09,NNW,327,0.0,0.0,78,0.00,,---,0.00,VWS V14.01,2013-08-24 08:58:00,
2013-08-24 03:59:00,66.9,59.8,29.09,NNW,327,0.0,0.0,78,0.00,,---,0.00,VWS V14.01,2013-08-24 08:59:00,
2013-08-24 04:00:00,66.9,59.8,29.09,NNW,327,0.0,0.0,78,0.00,,---,0.00,VWS V14.01,2013-08-24 09:00:00,
2013-08-24 04:01:00,66.9,59.8,29.09,NNW,327,0.0,0.0,78,0.00,,---,0.00,VWS V14.01,2013-08-24 09:01:00,
2013-08-24 04:02:00,66.9,59.8,29.09,NNW,327,0.0,0.0,78,0.00,,---,0.00,VWS V14.01,2013-08-24 09:02:00,
2013-08-24 04:03:00,66.9,59.8,29.09,NNW,327,0.0,0.0,78,0.00,,---,0.00,VWS V14.01,2013-08-24 09:03:00,
2013-08-24 04:04:00,66.9,59.8,29.09,NNW,327,0.0,0.0,78,0.00,,---,0.00,VWS V14.01,2013-08-24 09:04:00,
2013-08-24 04:05:00,66.9,59.8,29.09,NNW,327,0.0,0.0,78,0.00,,---,0.00,VWS V14.01,2013-08-24 09:05:00,
2013-08-24 04:06:00,66.9,59.8,29.09,NW,326,0.0,0.0,78,0.00,,---,0.00,VWS V14.01,2013-08-24 09:06:00,
2013-08-24 04:07:00,66.9,59.8,29.09,NNW,327,0.0,0.0,78,0.00,,---,0.00,VWS V14.01,2013-08-24 09:07:00,
2013-08-24 04:08:00,66.9,59.8,29.09,NNW,327,0.0,0.0,78,0.00,,---,0.00,VWS V14.01,2013-08-24 09:08:00,
2013-08-24 04:09:00,66.9,59.8,29.09,NNW,327,0.0,0.0,78,0.00,,---,0.00,VWS V14.01,2013-08-24 09:09:00,
2013-08-24 04:10:00,66.9,59.8,29.09,NNW,327,0.0,0.0,78,0.00,,---,0.00,VWS V14.01,2013-08-24 09:10:00,
2013-08-24 04:11:00,66.7,59.7,29.09,NNW,327,0.0,0.0,78,0.00,,---,0.00,VWS V14.01,2013-08-24 09:11:00,
2013-08-24 04:12:00,66.7,59.7,29.09,NNW,327,0.0,0.0,78,0.00,,---,0.00,VWS V14.01,2013-08-24 09:12:00,
2013-08-24 04:13:00,66.7,59.7,29.09,NNW,327,0.0,0.0,78,0.00,,---,0.00,VWS V14.01,2013-08-24 09:13:00,
2013-08-24 04:14:00,66.7,60.0,29.09,NNW,327,0.0,0.0,79,0.00,,---,0.00,VWS V14.01,2013-08-24 09:14:00,
2013-08-24 04:15:00,66.7,60.0,29.09,NNW,327,0.0,0.0,79,0.00,,---,0.00,VWS V14.01,2013-08-24 09:15:00,
2013-08-24 04:16:00,66.7,60.0,29.09,NNW,327,0.0,0.0,79,0.00,,---,0.00,VWS V14.01,2013-08-24 09:16:00,
2013-08-24 04:17:00,66.7,60.0,29.09,NNW,327,0.0,0.0,79,0.00,,---,0.00,VWS V14.01,2013-08-24 09:17:00,
2013-08-24 04:18:00,66.7,60.0,29.09,NNW,327,0.0,0.0,79,0.00,,---,0.00,VWS V14.01,2013-08-24 09:18:00,
2013-08-24 04:19:00,66.7,60.0,29.09,NNW,327,0.0,0.0,79,0.00,,---,0.00,VWS V14.01,2013-08-24 09:19:00,
2013-08-24 04:20:00,66.7,60.0,29.09,NNW,327,0.0,0.0,79,0.00,,---,0.00,VWS V14.01,2013-08-24 09:20:00,
2013-08-24 04:21:00,66.7,60.0,29.09,NNW,327,0.0,0.0,79,0.00,,---,0.00,VWS V14.01,2013-08-24 09:21:00,
2013-08-24 04:22:00,66.7,60.0,29.09,NNW,327,0.0,0.0,79,0.00,,---,0.00,VWS V14.01,2013-08-24 09:22:00,
2013-08-24 04:23:00,66.7,60.0,29.09,NNW,327,0.0,0.0,79,0.00,,---,0.00,VWS V14.01,2013-08-24 09:23:00,
2013-08-24 04:24:00,66.7,60.0,29.09,NNW,327,0.0,0.0,79,0.00,,---,0.00,VWS V14.01,2013-08-24 09:24:00,
2013-08-24 04:25:00,66.7,60.0,29.09,NNW,327,0.0,0.0,79,0.00,,---,0.00,VWS V14.01,2013-08-24 09:25:00,
2013-08-24 04:26:00,66.7,60.0,29.09,NNW,327,0.0,0.0,79,0.00,,---,0.00,VWS V14.01,2013-08-24 09:26:00,
2013-08-24 04:27:00,66.7,60.0,29.09,NNW,327,0.0,0.0,79,0.00,,---,0.00,VWS V14.01,2013-08-24 09:27:00,
2013-08-24 04:28:00,66.7,60.0,29.09,NNW,327,0.0,0.0,79,0.00,,---,0.00,VWS V14.01,2013-08-24 09:28:00,
2013-08-24 04:29:00,66.7,60.0,29.09,NNW,327,0.0,0.0,79,0.00,,---,0.00,VWS V14.01,2013-08-24 09:29:00,
2013-08-24 04:30:00,66.7,60.0,29.09,NNW,327,0.0,0.0,79,0.00,,---,0.00,VWS V14.01,2013-08-24 09:30:00,
2013-08-24 04:31:00,66.7,60.0,29.09,NNW,327,0.0,0.0,79,0.00,,---,0.00,VWS V14.01,2013-08-24 09:31:00,
2013-08-24 04:32:00,66.7,60.0,29.09,NNW,327,0.0,0.0,79,0.00,,---,0.00,VWS V14.01,2013-08-24 09:32:00,
2013-08-24 04:33:00,66.7,60.0,29.09,NNW,327,0.0,0.0,79,0.00,,---,0.00,VWS V14.01,2013-08-24 09:33:00,
2013-08-24 04:34:00,66.7,60.0,29.09,NNW,327,0.0,0.0,79,0.00,,---,0.00,VWS V14.01,2013-08-24 09:34:00,
2013-08-24 04:35:00,66.7,60.0,29.09,NNW,327,0.0,0.0,79,0.00,,---,0.00,VWS V14.01,2013-08-24 09:35:00,
2013-08-24 04:36:00,66.7,60.0,29.09,NNW,327,0.0,0.0,79,0.00,,---,0.00,VWS V14.01,2013-08-24 09:36:00,
2013-08-24 04:37:00,66.7,60.0,29.09,NNW,327,0.0,0.0,79,0.00,,---,0.00,VWS V14.01,2013-08-24 09:37:00,
2013-08-24 04:38:00,66.7,60.0,29.09,NNW,327,0.0,0.0,79,0.00,,---,0.00,VWS V14.01,2013-08-24 09:38:00,
2013-08-24 04:39:00,66.7,60.0,29.09,NNW,327,0.0,0.0,79,0.00,,---,0.00,VWS V14.01,2013-08-24 09:39:00,
2013-08-24 04:40:00,66.6,59.8,29.09,NNW,327,0.0,0.0,79,0.00,,---,0.00,VWS V14.01,2013-08-24 09:40:00,
2013-08-24 04:41:00,66.6,59.8,29.09,NNW,327,0.0,0.0,79,0.00,,---,0.00,VWS V14.01,2013-08-24 09:41:00,
2013-08-24 04:42:00,66.6,60.2,29.09,NNW,327,0.0,0.0,80,0.00,,---,0.00,VWS V14.01,2013-08-24 09:42:00,
2013-08-24 04:43:00,66.6,60.2,29.09,NNW,327,0.0,0.0,80,0.00,,---,0.00,VWS V14.01,2013-08-24 09:43:00,
2013-08-24 04:44:00,66.6,60.2,29.09,NNW,327,0.0,0.0,80,0.00,,---,0.00,VWS V14.01,2013-08-24 09:44:00,
2013-08-24 04:45:00,66.6,60.2,29.09,NNW,327,0.0,0.0,80,0.00,,---,0.00,VWS V14.01,2013-08-24 09:45:00,
2013-08-24 04:46:00,66.6,60.2,29.09,NNW,327,0.0,0.0,80,0.00,,---,0.00,VWS V14.01,2013-08-24 09:46:00,
2013-08-24 04:47:00,66.6,60.2,29.09,NNW,327,0.0,0.0,80,0.00,,---,0.00,VWS V14.01,2013-08-24 09:47:00,
2013-08-24 04:48:00,66.6,60.2,29.09,NNW,327,0.0,0.0,80,0.00,,---,0.00,VWS V14.01,2013-08-24 09:48:00,
2013-08-24 04:49:00,66.6,60.2,29.09,NNW,327,0.0,0.0,80,0.00,,---,0.00,VWS V14.01,2013-08-24 09:49:00,
2013-08-24 04:50:00,66.6,60.2,29.09,NNW,327,0.0,0.0,80,0.00,,---,0.00,VWS V14.01,2013-08-24 09:50:00,
2013-08-24 04:51:00,66.6,60.2,29.09,NNW,327,0.0,0.0,80,0.00,,---,0.00,VWS V14.01,2013-08-24 09:51:00,
2013-08-24 04:52:00,66.6,60.2,29.09,NNW,327,0.0,0.0,80,0.00,,---,0.00,VWS V14.01,2013-08-24 09:52:00,
2013-08-24 04:53:00,66.6,60.2,29.09,NNW,327,0.0,0.0,80,0.00,,---,0.00,VWS V14.01,2013-08-24 09:53:00,
2013-08-24 04:54:00,66.6,60.2,29.09,NNW,327,0.0,0.0,80,0.00,,---,0.00,VWS V14.01,2013-08-24 09:54:00,
2013-08-24 04:55:00,66.6,60.2,29.09,NNW,327,0.0,0.0,80,0.00,,---,0.00,VWS V14.01,2013-08-24 09:55:00,
2013-08-24 04:56:00,66.6,60.2,29.09,NNW,327,0.0,0.0,80,0.00,,---,0.00,VWS V14.01,2013-08-24 09:56:00,
2013-08-24 04:57:00,66.6,60.2,29.09,NNW,327,0.0,0.0,80,0.00,,---,0.00,VWS V14.01,2013-08-24 09:57:00,
2013-08-24 04:58:00,66.6,60.2,29.09,NNW,327,0.0,0.0,80,0.00,,---,0.00,VWS V14.01,2013-08-24 09:58:00,
2013-08-24 04:59:00,66.6,60.2,29.09,NNW,327,0.0,0.0,80,0.00,,---,0.00,VWS V14.01,2013-08-24 09:59:00,
2013-08-24 05:00:00,66.6,60.2,29.09,NNW,327,0.0,0.0,80,0.00,,---,0.00,VWS V14.01,2013-08-24 10:00:00,
2013-08-24 05:01:00,66.6,60.2,29.09,NNW,327,0.0,0.0,80,0.00,,---,0.00,VWS V14.01,2013-08-24 10:01:00,
2013-08-24 05:02:00,66.6,60.2,29.09,NNW,327,0.0,0.0,80,0.00,,---,0.00,VWS V14.01,2013-08-24 10:02:00,
2013-08-24 05:03:00,66.6,60.2,29.09,NNW,327,0.0,0.0,80,0.00,,---,0.00,VWS V14.01,2013-08-24 10:03:00,
2013-08-24 05:04:00,66.6,60.2,29.09,NNW,327,0.0,0.0,80,0.00,,---,0.00,VWS V14.01,2013-08-24 10:04:00,
2013-08-24 05:05:00,66.6,60.2,29.09,NNW,327,0.0,0.0,80,0.00,,---,0.00,VWS V14.01,2013-08-24 10:05:00,
2013-08-24 05:06:00,66.6,60.2,29.09,NNW,327,0.0,0.0,80,0.00,,---,0.00,VWS V14.01,2013-08-24 10:06:00,
2013-08-24 05:07:00,66.6,60.2,29.09,NNW,327,0.0,0.0,80,0.00,,---,0.00,VWS V14.01,2013-08-24 10:07:00,
2013-08-24 05:08:00,66.6,60.2,29.09,NNW,327,0.0,0.0,80,0.00,,---,0.00,VWS V14.01,2013-08-24 10:08:00,
2013-08-24 05:09:00,66.6,60.2,29.09,NNW,327,0.0,0.0,80,0.00,,---,0.00,VWS V14.01,2013-08-24 10:09:00,
2013-08-24 05:10:00,66.6,60.2,29.09,NNW,327,0.0,0.0,80,0.00,,---,0.00,VWS V14.01,2013-08-24 10:10:00,
2013-08-24 05:11:00,66.6,60.2,29.09,NNW,327,0.0,0.0,80,0.00,,---,0.00,VWS V14.01,2013-08-24 10:11:00,
2013-08-24 05:12:00,66.6,60.2,29.09,NNW,327,0.0,0.0,80,0.00,,---,0.00,VWS V14.01,2013-08-24 10:12:00,
2013-08-24 05:13:00,66.6,60.2,29.09,NNW,327,0.0,0.0,80,0.00,,---,0.00,VWS V14.01,2013-08-24 10:13:00,
2013-08-24 05:14:00,66.6,60.2,29.09,NNW,327,0.0,0.0,80,0.00,,---,0.00,VWS V14.01,2013-08-24 10:14:00,
2013-08-24 05:15:00,66.6,60.2,29.09,NNW,327,0.0,0.0,80,0.00,,---,0.00,VWS V14.01,2013-08-24 10:15:00,
2013-08-24 05:16:00,66.6,60.2,29.09,NNW,327,0.0,0.0,80,0.00,,---,0.00,VWS V14.01,2013-08-24 10:16:00,
2013-08-24 05:17:00,66.6,60.2,29.09,NNW,327,0.0,0.0,80,0.00,,---,0.00,VWS V14.01,2013-08-24 10:17:00,
2013-08-24 05:18:00,66.6,60.2,29.09,NNW,327,0.0,0.0,80,0.00,,---,0.00,VWS V14.01,2013-08-24 10:18:00,
2013-08-24 05:19:00,66.6,60.2,29.09,NNW,327,0.0,0.0,80,0.00,,---,0.00,VWS V14.01,2013-08-24 10:19:00,
2013-08-24 05:20:00,66.6,60.6,29.09,NNW,327,0.0,0.0,81,0.00,,---,0.00,VWS V14.01,2013-08-24 10:20:00,
2013-08-24 05:21:00,66.6,60.6,29.09,NNW,327,0.0,0.0,81,0.00,,---,0.00,VWS V14.01,2013-08-24 10:21:00,
2013-08-24 05:22:00,66.6,60.6,29.09,NNW,327,0.0,0.0,81,0.00,,---,0.00,VWS V14.01,2013-08-24 10:22:00,
2013-08-24 05:23:00,66.6,60.6,29.09,NNW,327,0.0,0.0,81,0.00,,---,0.00,VWS V14.01,2013-08-24 10:23:00,
2013-08-24 05:24:00,66.6,60.6,29.09,NNW,327,0.0,0.0,81,0.00,,---,0.00,VWS V14.01,2013-08-24 10:24:00,
2013-08-24 05:25:00,66.7,60.7,29.09,NNW,327,0.0,0.0,81,0.00,,---,0.00,VWS V14.01,2013-08-24 10:25:00,
2013-08-24 05:26:00,66.7,60.7,29.09,NNW,327,0.0,0.0,81,0.00,,---,0.00,VWS V14.01,2013-08-24 10:26:00,
2013-08-24 05:27:00,66.7,60.7,29.09,NNW,327,0.0,0.0,81,0.00,,---,0.00,VWS V14.01,2013-08-24 10:27:00,
2013-08-24 05:28:00,66.7,60.7,29.09,NNW,327,0.0,0.0,81,0.00,,---,0.00,VWS V14.01,2013-08-24 10:28:00,
2013-08-24 05:29:00,66.7,60.7,29.09,NNW,327,0.0,0.0,81,0.00,,---,0.00,VWS V14.01,2013-08-24 10:29:00,
2013-08-24 05:30:00,66.7,60.7,29.09,NNW,327,0.0,0.0,81,0.00,,---,0.00,VWS V14.01,2013-08-24 10:30:00,
2013-08-24 05:31:00,66.9,60.9,29.09,NNW,327,0.0,0.0,81,0.00,,---,0.00,VWS V14.01,2013-08-24 10:31:00,
2013-08-24 05:32:00,66.9,60.9,29.09,NNW,327,0.0,0.0,81,0.00,,---,0.00,VWS V14.01,2013-08-24 10:32:00,
2013-08-24 05:33:00,66.9,60.9,29.09,NNW,327,0.0,0.0,81,0.00,,---,0.00,VWS V14.01,2013-08-24 10:33:00,
2013-08-24 05:34:00,66.9,60.9,29.09,NNW,327,0.0,0.0,81,0.00,,---,0.00,VWS V14.01,2013-08-24 10:34:00,
2013-08-24 05:35:00,66.9,60.9,29.09,NNW,327,0.0,0.0,81,0.00,,---,0.00,VWS V14.01,2013-08-24 10:35:00,
2013-08-24 05:36:00,66.9,60.9,29.09,NNW,327,0.0,0.0,81,0.00,,---,0.00,VWS V14.01,2013-08-24 10:36:00,
2013-08-24 05:37:00,66.9,60.9,29.12,NNW,327,0.0,0.0,81,0.00,,---,0.00,VWS V14.01,2013-08-24 10:37:00,
2013-08-24 05:38:00,66.9,60.9,29.12,NNW,327,0.0,0.0,81,0.00,,---,0.00,VWS V14.01,2013-08-24 10:38:00,
2013-08-24 05:39:00,66.9,60.9,29.12,NNW,327,0.0,0.0,81,0.00,,---,0.00,VWS V14.01,2013-08-24 10:39:00,
2013-08-24 05:40:00,66.9,60.9,29.12,NNW,327,0.0,0.0,81,0.00,,---,0.00,VWS V14.01,2013-08-24 10:40:00,
2013-08-24 05:41:00,66.9,60.9,29.12,NNW,327,0.0,0.0,81,0.00,,---,0.00,VWS V14.01,2013-08-24 10:41:00,
2013-08-24 05:42:00,66.9,60.9,29.12,NNW,327,0.0,0.0,81,0.00,,---,0.00,VWS V14.01,2013-08-24 10:42:00,
2013-08-24 05:43:00,67.1,61.1,29.12,NNW,327,0.0,0.0,81,0.00,,---,0.00,VWS V14.01,2013-08-24 10:43:00,
2013-08-24 05:44:00,67.1,61.1,29.12,NNW,327,0.0,0.0,81,0.00,,---,0.00,VWS V14.01,2013-08-24 10:44:00,
2013-08-24 05:45:00,67.1,61.1,29.12,NNW,327,0.0,0.0,81,0.00,,---,0.00,VWS V14.01,2013-08-24 10:45:00,
2013-08-24 05:46:00,67.1,61.4,29.12,NNW,327,0.0,0.0,82,0.00,,---,0.00,VWS V14.01,2013-08-24 10:46:00,
2013-08-24 05:47:00,67.1,61.4,29.12,NNW,327,0.0,0.0,82,0.00,,---,0.00,VWS V14.01,2013-08-24 10:47:00,
2013-08-24 05:48:00,67.1,61.4,29.12,NNW,327,0.0,0.0,82,0.00,,---,0.00,VWS V14.01,2013-08-24 10:48:00,
2013-08-24 05:49:00,67.1,61.4,29.12,NNW,327,0.0,0.0,82,0.00,,---,0.00,VWS V14.01,2013-08-24 10:49:00,
2013-08-24 05:50:00,67.1,61.4,29.15,NNW,327,0.0,0.0,82,0.00,,---,0.00,VWS V14.01,2013-08-24 10:50:00,
2013-08-24 05:51:00,67.1,61.4,29.15,NNW,327,0.0,0.0,82,0.00,,---,0.00,VWS V14.01,2013-08-24 10:51:00,
2013-08-24 05:52:00,67.1,61.4,29.15,NNW,327,0.0,0.0,82,0.00,,---,0.00,VWS V14.01,2013-08-24 10:52:00,
2013-08-24 05:53:00,67.1,61.4,29.15,NNW,327,0.0,0.0,82,0.00,,---,0.00,VWS V14.01,2013-08-24 10:53:00,
2013-08-24 05:54:00,67.1,61.4,29.15,NNW,327,0.0,0.0,82,0.00,,---,0.00,VWS V14.01,2013-08-24 10:54:00,
2013-08-24 05:55:00,67.1,61.4,29.15,NNW,327,0.0,0.0,82,0.00,,---,0.00,VWS V14.01,2013-08-24 10:55:00,
2013-08-24 05:56:00,67.1,61.4,29.15,NNW,327,0.0,0.0,82,0.00,,---,0.00,VWS V14.01,2013-08-24 10:56:00,
2013-08-24 05:57:00,67.1,61.4,29.15,NNW,327,0.0,0.0,82,0.00,,---,0.00,VWS V14.01,2013-08-24 10:57:00,
2013-08-24 05:58:00,67.3,61.6,29.15,NNW,327,0.0,0.0,82,0.00,,---,0.00,VWS V14.01,2013-08-24 10:58:00,
2013-08-24 05:59:00,67.3,61.6,29.15,NNW,327,0.0,0.0,82,0.00,,---,0.00,VWS V14.01,2013-08-24 10:59:00,
2013-08-24 06:00:00,67.3,61.6,29.15,NNW,327,0.0,0.0,82,0.00,,---,0.00,VWS V14.01,2013-08-24 11:00:00,
2013-08-24 06:01:00,67.3,61.6,29.15,NNW,327,0.0,0.0,82,0.00,,---,0.00,VWS V14.01,2013-08-24 11:01:00,
2013-08-24 06:02:00,67.3,61.6,29.15,NNW,327,0.0,0.0,82,0.00,,---,0.00,VWS V14.01,2013-08-24 11:02:00,
2013-08-24 06:03:00,67.3,61.6,29.15,NNW,327,0.0,0.0,82,0.00,,---,0.00,VWS V14.01,2013-08-24 11:03:00,
2013-08-24 06:04:00,67.3,61.6,29.15,NNW,327,0.0,0.0,82,0.00,,---,0.00,VWS V14.01,2013-08-24 11:04:00,
2013-08-24 06:05:00,67.3,61.6,29.15,NNW,327,0.0,0.0,82,0.00,,---,0.00,VWS V14.01,2013-08-24 11:05:00,
2013-08-24 06:06:00,67.3,61.6,29.15,NNW,327,0.0,0.0,82,0.00,,---,0.00,VWS V14.01,2013-08-24 11:06:00,
2013-08-24 06:07:00,67.3,61.6,29.15,NNW,327,0.0,0.0,82,0.00,,---,0.00,VWS V14.01,2013-08-24 11:07:00,
2013-08-24 06:08:00,67.3,61.6,29.15,NNW,327,0.0,0.0,82,0.00,,---,0.00,VWS V14.01,2013-08-24 11:08:00,
2013-08-24 06:09:00,67.3,61.6,29.15,NNW,327,0.0,0.0,82,0.00,,---,0.00,VWS V14.01,2013-08-24 11:09:00,
2013-08-24 06:10:00,67.3,61.6,29.15,NNW,327,0.0,0.0,82,0.00,,---,0.00,VWS V14.01,2013-08-24 11:10:00,
2013-08-24 06:11:00,67.3,61.6,29.15,NNW,327,0.0,0.0,82,0.00,,---,0.00,VWS V14.01,2013-08-24 11:11:00,
2013-08-24 06:12:00,67.3,61.6,29.15,NNW,327,0.0,0.0,82,0.00,,---,0.00,VWS V14.01,2013-08-24 11:12:00,
2013-08-24 06:13:00,67.3,61.6,29.15,NNW,327,0.0,0.0,82,0.00,,---,0.00,VWS V14.01,2013-08-24 11:13:00,
2013-08-24 06:14:00,67.3,61.6,29.15,NNW,327,0.0,0.0,82,0.00,,---,0.00,VWS V14.01,2013-08-24 11:14:00,
2013-08-24 06:15:00,67.3,61.6,29.15,NNW,327,0.0,0.0,82,0.00,,---,0.00,VWS V14.01,2013-08-24 11:15:00,
2013-08-24 06:16:00,67.3,61.6,29.15,NNW,327,0.0,0.0,82,0.00,,---,0.00,VWS V14.01,2013-08-24 11:16:00,
2013-08-24 06:17:00,67.3,61.6,29.15,NW,326,0.0,0.0,82,0.00,,---,0.00,VWS V14.01,2013-08-24 11:17:00,
2013-08-24 06:18:00,67.1,61.4,29.15,NNW,327,0.0,0.0,82,0.00,,---,0.00,VWS V14.01,2013-08-24 11:18:00,
2013-08-24 06:19:00,67.1,61.4,29.15,NNW,327,0.0,0.0,82,0.00,,---,0.00,VWS V14.01,2013-08-24 11:19:00,
2013-08-24 06:20:00,67.1,61.4,29.15,NNW,327,0.0,0.0,82,0.00,,---,0.00,VWS V14.01,2013-08-24 11:20:00,
2013-08-24 06:21:00,67.3,61.6,29.15,NNW,327,0.0,0.0,82,0.00,,---,0.00,VWS V14.01,2013-08-24 11:21:00,
2013-08-24 06:22:00,67.3,61.6,29.15,NNW,327,0.0,0.0,82,0.00,,---,0.00,VWS V14.01,2013-08-24 11:22:00,
2013-08-24 06:23:00,67.3,61.6,29.15,NNW,327,0.0,0.0,82,0.00,,---,0.00,VWS V14.01,2013-08-24 11:23:00,
2013-08-24 06:24:00,67.3,61.6,29.15,NNW,327,0.0,0.0,82,0.00,,---,0.00,VWS V14.01,2013-08-24 11:24:00,
2013-08-24 06:25:00,67.3,61.6,29.15,NNW,327,0.0,0.0,82,0.00,,---,0.00,VWS V14.01,2013-08-24 11:25:00,
2013-08-24 06:26:00,67.3,61.6,29.15,NNW,327,0.0,0.0,82,0.00,,---,0.00,VWS V14.01,2013-08-24 11:26:00,
2013-08-24 06:27:00,67.3,61.6,29.15,NNW,327,0.0,0.0,82,0.00,,---,0.00,VWS V14.01,2013-08-24 11:27:00,
2013-08-24 06:28:00,67.3,61.6,29.15,NNW,327,0.0,0.0,82,0.00,,---,0.00,VWS V14.01,2013-08-24 11:28:00,
2013-08-24 06:29:00,67.3,61.6,29.15,NNW,327,0.0,0.0,82,0.00,,---,0.00,VWS V14.01,2013-08-24 11:29:00,
2013-08-24 06:30:00,67.3,61.6,29.15,NNW,327,0.0,0.0,82,0.00,,---,0.00,VWS V14.01,2013-08-24 11:30:00,
2013-08-24 06:31:00,67.3,61.6,29.15,NNW,327,0.0,0.0,82,0.00,,---,0.00,VWS V14.01,2013-08-24 11:31:00,
2013-08-24 06:32:00,67.3,61.6,29.15,NNW,327,0.0,0.0,82,0.00,,---,0.00,VWS V14.01,2013-08-24 11:32:00,
2013-08-24 06:33:00,67.3,61.6,29.15,NW,326,0.0,0.0,82,0.00,,---,0.00,VWS V14.01,2013-08-24 11:33:00,
2013-08-24 06:34:00,67.3,61.6,29.15,NNW,327,0.0,0.0,82,0.00,,---,0.00,VWS V14.01,2013-08-24 11:34:00,
2013-08-24 06:35:00,67.3,61.6,29.15,NNW,327,0.0,0.0,82,0.00,,---,0.00,VWS V14.01,2013-08-24 11:35:00,
2013-08-24 06:36:00,67.3,61.6,29.15,NNW,327,0.0,0.0,82,0.00,,---,0.00,VWS V14.01,2013-08-24 11:36:00,
2013-08-24 06:37:00,67.3,61.6,29.15,NNW,327,0.0,0.0,82,0.00,,---,0.00,VWS V14.01,2013-08-24 11:37:00,
2013-08-24 06:38:00,67.3,61.6,29.15,NNW,327,0.0,0.0,82,0.00,,---,0.00,VWS V14.01,2013-08-24 11:38:00,
2013-08-24 06:39:00,67.5,62.1,29.15,NNW,327,0.0,0.0,83,0.00,,---,0.00,VWS V14.01,2013-08-24 11:39:00,
2013-08-24 06:40:00,67.5,62.1,29.15,NNW,327,0.0,0.0,83,0.00,,---,0.00,VWS V14.01,2013-08-24 11:40:00,
2013-08-24 06:41:00,67.5,62.1,29.15,NNW,331,0.0,0.0,83,0.00,,---,0.00,VWS V14.01,2013-08-24 11:41:00,
2013-08-24 06:42:00,67.5,62.1,29.15,NNW,335,0.0,0.0,83,0.00,,---,0.00,VWS V14.01,2013-08-24 11:42:00,
2013-08-24 06:43:00,67.5,62.1,29.15,NNW,335,0.0,0.0,83,0.00,,---,0.00,VWS V14.01,2013-08-24 11:43:00,
2013-08-24 06:44:00,67.5,62.1,29.15,NW,310,0.0,0.0,83,0.00,,---,0.00,VWS V14.01,2013-08-24 11:44:00,
2013-08-24 06:45:00,67.5,62.1,29.15,NW,312,0.0,0.0,83,0.00,,---,0.00,VWS V14.01,2013-08-24 11:45:00,
2013-08-24 06:46:00,67.5,62.1,29.15,NW,313,0.0,0.0,83,0.00,,---,0.00,VWS V14.01,2013-08-24 11:46:00,
2013-08-24 06:47:00,67.6,62.3,29.15,NW,313,0.0,0.0,83,0.00,,---,0.00,VWS V14.01,2013-08-24 11:47:00,
2013-08-24 06:48:00,67.6,62.3,29.15,NW,313,0.0,0.0,83,0.00,,---,0.00,VWS V14.01,2013-08-24 11:48:00,
2013-08-24 06:49:00,67.6,62.3,29.15,NW,313,0.0,0.0,83,0.00,,---,0.00,VWS V14.01,2013-08-24 11:49:00,
2013-08-24 06:50:00,67.6,62.3,29.15,NW,313,0.0,0.0,83,0.00,,---,0.00,VWS V14.01,2013-08-24 11:50:00,
2013-08-24 06:51:00,67.6,62.3,29.15,NW,313,0.0,0.0,83,0.00,,---,0.00,VWS V14.01,2013-08-24 11:51:00,
2013-08-24 06:52:00,67.6,62.3,29.15,NW,313,0.0,0.0,83,0.00,,---,0.00,VWS V14.01,2013-08-24 11:52:00,
2013-08-24 06:53:00,67.6,62.3,29.15,NW,313,0.0,0.0,83,0.00,,---,0.00,VWS V14.01,2013-08-24 11:53:00,
2013-08-24 06:54:00,67.6,62.3,29.15,NW,313,0.0,0.0,83,0.00,,---,0.00,VWS V14.01,2013-08-24 11:54:00,
2013-08-24 06:55:00,67.6,62.3,29.15,NW,313,0.0,0.0,83,0.00,,---,0.00,VWS V14.01,2013-08-24 11:55:00,
2013-08-24 06:56:00,67.6,62.3,29.15,NW,313,0.0,0.0,83,0.00,,---,0.00,VWS V14.01,2013-08-24 11:56:00,
2013-08-24 06:57:00,67.6,62.3,29.15,NW,313,0.0,0.0,83,0.00,,---,0.00,VWS V14.01,2013-08-24 11:57:00,
2013-08-24 06:58:00,67.6,62.3,29.15,NW,313,0.0,0.0,83,0.00,,---,0.00,VWS V14.01,2013-08-24 11:58:00,
2013-08-24 06:59:00,67.8,62.5,29.15,NW,313,0.0,0.0,83,0.00,,---,0.00,VWS V14.01,2013-08-24 11:59:00,
2013-08-24 07:00:00,67.8,62.5,29.15,NW,313,0.0,0.0,83,0.00,,---,0.00,VWS V14.01,2013-08-24 12:00:00,
2013-08-24 07:01:00,67.8,62.5,29.15,NW,313,0.0,0.0,83,0.00,,---,0.00,VWS V14.01,2013-08-24 12:01:00,
2013-08-24 07:02:00,67.8,62.8,29.15,NW,313,0.0,0.0,84,0.00,,---,0.00,VWS V14.01,2013-08-24 12:02:00,
2013-08-24 07:03:00,67.8,62.8,29.15,NW,313,0.0,0.0,84,0.00,,---,0.00,VWS V14.01,2013-08-24 12:03:00,
2013-08-24 07:04:00,67.8,62.8,29.15,NW,313,0.0,0.0,84,0.00,,---,0.00,VWS V14.01,2013-08-24 12:04:00,
2013-08-24 07:05:00,68.0,62.7,29.15,NW,313,0.0,0.0,83,0.00,,---,0.00,VWS V14.01,2013-08-24 12:05:00,
2013-08-24 07:06:00,68.0,62.7,29.15,NW,313,0.0,0.0,83,0.00,,---,0.00,VWS V14.01,2013-08-24 12:06:00,
2013-08-24 07:07:00,68.0,62.7,29.15,NW,313,0.0,0.0,83,0.00,,---,0.00,VWS V14.01,2013-08-24 12:07:00,
2013-08-24 07:08:00,68.0,62.7,29.15,NW,313,0.0,0.0,83,0.00,,---,0.00,VWS V14.01,2013-08-24 12:08:00,
2013-08-24 07:09:00,68.0,62.7,29.15,NW,313,0.0,0.0,83,0.00,,---,0.00,VWS V14.01,2013-08-24 12:09:00,
2013-08-24 07:10:00,68.0,62.7,29.15,NW,313,0.0,0.0,83,0.00,,---,0.00,VWS V14.01,2013-08-24 12:10:00,
2013-08-24 07:11:00,68.2,63.2,29.15,NW,313,0.0,0.0,84,0.00,,---,0.00,VWS V14.01,2013-08-24 12:11:00,
2013-08-24 07:12:00,68.2,63.2,29.15,NW,313,0.0,0.0,84,0.00,,---,0.00,VWS V14.01,2013-08-24 12:12:00,
2013-08-24 07:13:00,68.2,63.2,29.15,NW,313,0.0,0.0,84,0.00,,---,0.00,VWS V14.01,2013-08-24 12:13:00,
2013-08-24 07:14:00,68.2,63.2,29.15,NW,313,0.0,0.0,84,0.00,,---,0.00,VWS V14.01,2013-08-24 12:14:00,
2013-08-24 07:15:00,68.4,63.3,29.15,NW,313,0.0,0.0,84,0.00,,---,0.00,VWS V14.01,2013-08-24 12:15:00,
2013-08-24 07:16:00,68.4,63.3,29.15,NW,313,0.0,0.0,84,0.00,,---,0.00,VWS V14.01,2013-08-24 12:16:00,
2013-08-24 07:17:00,68.4,63.3,29.15,NW,313,0.0,0.0,84,0.00,,---,0.00,VWS V14.01,2013-08-24 12:17:00,
2013-08-24 07:18:00,68.4,63.3,29.15,NW,313,0.0,0.0,84,0.00,,---,0.00,VWS V14.01,2013-08-24 12:18:00,
2013-08-24 07:19:00,68.4,63.3,29.15,NW,313,0.0,0.0,84,0.00,,---,0.00,VWS V14.01,2013-08-24 12:19:00,
2013-08-24 07:20:00,68.4,63.3,29.18,NW,313,0.0,0.0,84,0.00,,---,0.00,VWS V14.01,2013-08-24 12:20:00,
2013-08-24 07:21:00,68.4,63.3,29.18,NW,314,0.0,0.0,84,0.00,,---,0.00,VWS V14.01,2013-08-24 12:21:00,
2013-08-24 07:22:00,68.5,63.5,29.18,NW,313,0.0,0.0,84,0.00,,---,0.00,VWS V14.01,2013-08-24 12:22:00,
2013-08-24 07:23:00,68.5,63.5,29.18,NW,313,0.0,0.0,84,0.00,,---,0.00,VWS V14.01,2013-08-24 12:23:00,
2013-08-24 07:24:00,68.5,63.5,29.18,NW,313,0.0,0.0,84,0.00,,---,0.00,VWS V14.01,2013-08-24 12:24:00,
2013-08-24 07:25:00,68.5,63.5,29.18,NW,313,0.0,0.0,84,0.00,,---,0.00,VWS V14.01,2013-08-24 12:25:00,
2013-08-24 07:26:00,68.5,63.5,29.18,NW,313,0.0,0.0,84,0.00,,---,0.00,VWS V14.01,2013-08-24 12:26:00,
2013-08-24 07:27:00,68.5,63.5,29.18,NW,313,0.0,0.0,84,0.00,,---,0.00,VWS V14.01,2013-08-24 12:27:00,
2013-08-24 07:28:00,68.5,63.5,29.18,NW,313,0.0,0.0,84,0.00,,---,0.00,VWS V14.01,2013-08-24 12:28:00,
2013-08-24 07:29:00,68.5,63.5,29.18,NW,314,0.0,0.0,84,0.00,,---,0.00,VWS V14.01,2013-08-24 12:29:00,
2013-08-24 07:30:00,68.5,63.5,29.18,NW,313,0.0,0.0,84,0.00,,---,0.00,VWS V14.01,2013-08-24 12:30:00,
2013-08-24 07:31:00,68.7,63.7,29.18,NW,313,0.0,0.0,84,0.00,,---,0.00,VWS V14.01,2013-08-24 12:31:00,
2013-08-24 07:32:00,68.7,63.7,29.18,NW,313,0.0,0.0,84,0.00,,---,0.00,VWS V14.01,2013-08-24 12:32:00,
2013-08-24 07:33:00,68.7,63.7,29.18,NW,313,0.0,0.0,84,0.00,,---,0.00,VWS V14.01,2013-08-24 12:33:00,
2013-08-24 07:34:00,68.7,63.7,29.18,NW,313,0.0,0.0,84,0.00,,---,0.00,VWS V14.01,2013-08-24 12:34:00,
2013-08-24 07:35:00,68.7,63.7,29.18,NW,313,0.0,0.0,84,0.00,,---,0.00,VWS V14.01,2013-08-24 12:35:00,
2013-08-24 07:36:00,68.7,63.7,29.18,NW,314,0.0,0.0,84,0.00,,---,0.00,VWS V14.01,2013-08-24 12:36:00,
2013-08-24 07:37:00,68.7,63.7,29.18,NW,313,0.0,0.0,84,0.00,,---,0.00,VWS V14.01,2013-08-24 12:37:00,
2013-08-24 07:38:00,68.7,63.7,29.18,NW,313,0.0,0.0,84,0.00,,---,0.00,VWS V14.01,2013-08-24 12:38:00,
2013-08-24 07:39:00,68.7,63.7,29.18,NW,314,0.0,0.0,84,0.00,,---,0.00,VWS V14.01,2013-08-24 12:39:00,
2013-08-24 07:40:00,68.7,63.7,29.18,NW,313,0.0,0.0,84,0.00,,---,0.00,VWS V14.01,2013-08-24 12:40:00,
2013-08-24 07:41:00,68.7,63.7,29.18,NW,313,0.0,0.0,84,0.00,,---,0.00,VWS V14.01,2013-08-24 12:41:00,
2013-08-24 07:42:00,68.7,63.7,29.18,NW,313,0.0,0.0,84,0.00,,---,0.00,VWS V14.01,2013-08-24 12:42:00,
2013-08-24 07:43:00,68.9,63.9,29.18,NW,313,0.0,0.0,84,0.00,,---,0.00,VWS V14.01,2013-08-24 12:43:00,
2013-08-24 07:44:00,68.9,63.9,29.18,NW,313,0.0,0.0,84,0.00,,---,0.00,VWS V14.01,2013-08-24 12:44:00,
2013-08-24 07:45:00,68.9,63.9,29.18,NW,313,0.0,0.0,84,0.00,,---,0.00,VWS V14.01,2013-08-24 12:45:00,
2013-08-24 07:46:00,69.1,64.1,29.18,NW,313,0.0,0.0,84,0.00,,---,0.00,VWS V14.01,2013-08-24 12:46:00,
2013-08-24 07:47:00,69.1,64.1,29.18,NW,313,0.0,0.0,84,0.00,,---,0.00,VWS V14.01,2013-08-24 12:47:00,
2013-08-24 07:48:00,69.1,64.4,29.18,NW,314,0.0,0.0,85,0.00,,---,0.00,VWS V14.01,2013-08-24 12:48:00,
2013-08-24 07:49:00,69.1,64.4,29.18,NW,313,0.0,0.0,85,0.00,,---,0.00,VWS V14.01,2013-08-24 12:49:00,
2013-08-24 07:50:00,69.1,64.4,29.18,NW,313,0.0,0.0,85,0.00,,---,0.00,VWS V14.01,2013-08-24 12:50:00,
2013-08-24 07:51:00,69.1,64.4,29.18,NW,313,0.0,0.0,85,0.00,,---,0.00,VWS V14.01,2013-08-24 12:51:00,
2013-08-24 07:52:00,69.3,64.6,29.18,NW,313,0.0,0.0,85,0.00,,---,0.00,VWS V14.01,2013-08-24 12:52:00,
2013-08-24 07:53:00,69.3,64.6,29.18,NW,314,0.0,0.0,85,0.00,,---,0.00,VWS V14.01,2013-08-24 12:53:00,
2013-08-24 07:54:00,69.4,64.7,29.18,NW,313,0.0,0.0,85,0.00,,---,0.00,VWS V14.01,2013-08-24 12:54:00,
2013-08-24 07:55:00,69.4,64.7,29.18,NW,313,0.0,0.0,85,0.00,,---,0.00,VWS V14.01,2013-08-24 12:55:00,
2013-08-24 07:56:00,69.4,64.7,29.18,North,4,0.0,0.0,85,0.00,,---,0.00,VWS V14.01,2013-08-24 12:56:00,
2013-08-24 07:57:00,69.4,64.7,29.18,North,4,0.0,0.0,85,0.00,,---,0.00,VWS V14.01,2013-08-24 12:57:00,
2013-08-24 07:58:00,69.4,64.7,29.18,North,4,0.0,0.0,85,0.00,,---,0.00,VWS V14.01,2013-08-24 12:58:00,
2013-08-24 07:59:00,69.4,64.4,29.18,North,4,0.0,0.0,84,0.00,,---,0.00,VWS V14.01,2013-08-24 12:59:00,
2013-08-24 08:00:00,69.4,64.4,29.18,North,4,0.0,0.0,84,0.00,,---,0.00,VWS V14.01,2013-08-24 13:00:00,
2013-08-24 08:01:00,69.6,64.6,29.18,North,4,0.0,0.0,84,0.00,,---,0.00,VWS V14.01,2013-08-24 13:01:00,
2013-08-24 08:02:00,69.6,64.6,29.18,North,4,0.0,0.0,84,0.00,,---,0.00,VWS V14.01,2013-08-24 13:02:00,
2013-08-24 08:03:00,69.6,64.6,29.18,North,4,0.0,0.0,84,0.00,,---,0.00,VWS V14.01,2013-08-24 13:03:00,
2013-08-24 08:04:00,69.6,64.6,29.18,North,4,0.0,0.0,84,0.00,,---,0.00,VWS V14.01,2013-08-24 13:04:00,
2013-08-24 08:05:00,69.8,64.8,29.18,North,4,0.0,0.0,84,0.00,,---,0.00,VWS V14.01,2013-08-24 13:05:00,
2013-08-24 08:06:00,69.8,64.8,29.18,North,4,0.0,0.0,84,0.00,,---,0.00,VWS V14.01,2013-08-24 13:06:00,
2013-08-24 08:07:00,69.8,64.8,29.18,North,4,0.0,0.0,84,0.00,,---,0.00,VWS V14.01,2013-08-24 13:07:00,
2013-08-24 08:08:00,69.8,64.8,29.18,North,4,0.0,0.0,84,0.00,,---,0.00,VWS V14.01,2013-08-24 13:08:00,
2013-08-24 08:09:00,69.8,64.4,29.18,North,4,0.0,0.0,83,0.00,,---,0.00,VWS V14.01,2013-08-24 13:09:00,
2013-08-24 08:10:00,70.0,64.6,29.18,North,4,0.0,0.0,83,0.00,,---,0.00,VWS V14.01,2013-08-24 13:10:00,
2013-08-24 08:11:00,70.0,64.6,29.18,North,4,0.0,0.0,83,0.00,,---,0.00,VWS V14.01,2013-08-24 13:11:00,
2013-08-24 08:12:00,70.0,64.6,29.18,North,4,0.0,0.0,83,0.00,,---,0.00,VWS V14.01,2013-08-24 13:12:00,
2013-08-24 08:13:00,70.0,64.6,29.18,North,4,0.0,0.0,83,0.00,,---,0.00,VWS V14.01,2013-08-24 13:13:00,
2013-08-24 08:14:00,70.2,64.8,29.18,North,4,0.0,0.0,83,0.00,,---,0.00,VWS V14.01,2013-08-24 13:14:00,
2013-08-24 08:15:00,70.2,64.8,29.18,North,4,0.0,0.0,83,0.00,,---,0.00,VWS V14.01,2013-08-24 13:15:00,
2013-08-24 08:16:00,70.2,64.8,29.18,North,4,0.0,0.0,83,0.00,,---,0.00,VWS V14.01,2013-08-24 13:16:00,
2013-08-24 08:17:00,70.3,64.9,29.18,North,4,0.0,0.0,83,0.00,,---,0.00,VWS V14.01,2013-08-24 13:17:00,
2013-08-24 08:18:00,70.3,64.9,29.18,North,5,0.0,0.0,83,0.00,,---,0.00,VWS V14.01,2013-08-24 13:18:00,
2013-08-24 08:19:00,70.3,64.9,29.18,North,4,0.0,0.0,83,0.00,,---,0.00,VWS V14.01,2013-08-24 13:19:00,
2013-08-24 08:20:00,70.3,64.9,29.18,North,4,0.0,0.0,83,0.00,,---,0.00,VWS V14.01,2013-08-24 13:20:00,
2013-08-24 08:21:00,70.3,64.9,29.18,North,4,0.0,0.0,83,0.00,,---,0.00,VWS V14.01,2013-08-24 13:21:00,
2013-08-24 08:22:00,70.5,64.8,29.18,North,4,0.0,0.0,82,0.00,,---,0.00,VWS V14.01,2013-08-24 13:22:00,
2013-08-24 08:23:00,70.5,64.8,29.18,North,4,0.0,0.0,82,0.00,,---,0.00,VWS V14.01,2013-08-24 13:23:00,
2013-08-24 08:24:00,70.5,64.8,29.18,North,4,0.0,0.0,82,0.00,,---,0.00,VWS V14.01,2013-08-24 13:24:00,
2013-08-24 08:25:00,70.5,64.8,29.18,North,4,0.0,0.0,82,0.00,,---,0.00,VWS V14.01,2013-08-24 13:25:00,
2013-08-24 08:26:00,70.5,64.8,29.18,North,4,0.0,0.0,82,0.00,,---,0.00,VWS V14.01,2013-08-24 13:26:00,
2013-08-24 08:27:00,70.7,64.9,29.18,North,4,0.0,0.0,82,0.00,,---,0.00,VWS V14.01,2013-08-24 13:27:00,
2013-08-24 08:28:00,70.7,64.9,29.18,North,5,0.0,0.0,82,0.00,,---,0.00,VWS V14.01,2013-08-24 13:28:00,
2013-08-24 08:29:00,70.7,64.9,29.18,North,4,0.0,0.0,82,0.00,,---,0.00,VWS V14.01,2013-08-24 13:29:00,
2013-08-24 08:30:00,70.9,65.1,29.18,North,4,0.0,0.0,82,0.00,,---,0.00,VWS V14.01,2013-08-24 13:30:00,
2013-08-24 08:31:00,70.7,64.6,29.18,North,4,0.0,0.0,81,0.00,,---,0.00,VWS V14.01,2013-08-24 13:31:00,
2013-08-24 08:32:00,70.7,64.6,29.18,North,4,0.0,0.0,81,0.00,,---,0.00,VWS V14.01,2013-08-24 13:32:00,
2013-08-24 08:33:00,70.7,64.6,29.18,North,4,0.0,0.0,81,0.00,,---,0.00,VWS V14.01,2013-08-24 13:33:00,
2013-08-24 08:34:00,70.9,64.4,29.18,North,4,0.0,0.0,80,0.00,,---,0.00,VWS V14.01,2013-08-24 13:34:00,
2013-08-24 08:35:00,70.9,64.4,29.18,North,4,0.0,0.0,80,0.00,,---,0.00,VWS V14.01,2013-08-24 13:35:00,
2013-08-24 08:36:00,70.9,64.4,29.18,North,4,0.0,0.0,80,0.00,,---,0.00,VWS V14.01,2013-08-24 13:36:00,
2013-08-24 08:37:00,70.9,64.4,29.18,North,4,0.0,0.0,80,0.00,,---,0.00,VWS V14.01,2013-08-24 13:37:00,
2013-08-24 08:38:00,70.9,64.4,29.18,North,5,0.0,0.0,80,0.00,,---,0.00,VWS V14.01,2013-08-24 13:38:00,
2013-08-24 08:39:00,70.9,64.4,29.18,North,4,0.0,0.0,80,0.00,,---,0.00,VWS V14.01,2013-08-24 13:39:00,
2013-08-24 08:40:00,70.9,64.4,29.18,North,4,0.0,0.0,80,0.00,,---,0.00,VWS V14.01,2013-08-24 13:40:00,
2013-08-24 08:41:00,70.9,64.4,29.18,North,4,0.0,0.0,80,0.00,,---,0.00,VWS V14.01,2013-08-24 13:41:00,
2013-08-24 08:42:00,71.1,64.6,29.18,North,4,0.0,0.0,80,0.00,,---,0.00,VWS V14.01,2013-08-24 13:42:00,
2013-08-24 08:43:00,71.1,64.6,29.18,North,4,0.0,0.0,80,0.00,,---,0.00,VWS V14.01,2013-08-24 13:43:00,
2013-08-24 08:44:00,71.1,64.6,29.18,North,4,0.0,0.0,80,0.00,,---,0.00,VWS V14.01,2013-08-24 13:44:00,
2013-08-24 08:45:00,71.1,64.6,29.18,North,4,0.0,0.0,80,0.00,,---,0.00,VWS V14.01,2013-08-24 13:45:00,
2013-08-24 08:46:00,70.9,63.7,29.18,North,4,0.0,0.0,78,0.00,,---,0.00,VWS V14.01,2013-08-24 13:46:00,
2013-08-24 08:47:00,71.1,63.9,29.18,North,4,0.0,0.0,78,0.00,,---,0.00,VWS V14.01,2013-08-24 13:47:00,
2013-08-24 08:48:00,71.1,63.9,29.18,North,4,0.0,0.0,78,0.00,,---,0.00,VWS V14.01,2013-08-24 13:48:00,
2013-08-24 08:49:00,71.2,64.0,29.18,North,4,0.0,0.0,78,0.00,,---,0.00,VWS V14.01,2013-08-24 13:49:00,
2013-08-24 08:50:00,71.2,64.0,29.18,North,4,0.0,0.0,78,0.00,,---,0.00,VWS V14.01,2013-08-24 13:50:00,
2013-08-24 08:51:00,71.2,64.0,29.18,North,4,0.0,0.0,78,0.00,,---,0.00,VWS V14.01,2013-08-24 13:51:00,
2013-08-24 08:52:00,71.4,64.2,29.18,North,4,0.0,0.0,78,0.00,,---,0.00,VWS V14.01,2013-08-24 13:52:00,
2013-08-24 08:53:00,71.4,64.2,29.18,North,4,0.0,0.0,78,0.00,,---,0.00,VWS V14.01,2013-08-24 13:53:00,
2013-08-24 08:54:00,71.4,64.2,29.18,North,4,0.0,0.0,78,0.00,,---,0.00,VWS V14.01,2013-08-24 13:54:00,
2013-08-24 08:55:00,71.4,63.8,29.18,North,4,0.0,0.0,77,0.00,,---,0.00,VWS V14.01,2013-08-24 13:55:00,
2013-08-24 08:56:00,71.4,63.8,29.18,North,4,0.0,0.0,77,0.00,,---,0.00,VWS V14.01,2013-08-24 13:56:00,
2013-08-24 08:57:00,71.4,63.8,29.18,North,4,0.0,0.0,77,0.00,,---,0.00,VWS V14.01,2013-08-24 13:57:00,
2013-08-24 08:58:00,71.4,63.8,29.18,North,4,0.0,0.0,77,0.00,,---,0.00,VWS V14.01,2013-08-24 13:58:00,
2013-08-24 08:59:00,71.4,63.8,29.18,North,4,0.0,0.0,77,0.00,,---,0.00,VWS V14.01,2013-08-24 13:59:00,
2013-08-24 09:00:00,71.4,63.8,29.18,North,4,0.0,0.0,77,0.00,,---,0.00,VWS V14.01,2013-08-24 14:00:00,
2013-08-24 09:01:00,72.3,64.3,29.18,North,4,0.0,0.0,76,0.00,,---,0.00,VWS V14.01,2013-08-24 14:01:00,
2013-08-24 09:02:00,72.3,64.3,29.18,North,4,0.0,0.0,76,0.00,,---,0.00,VWS V14.01,2013-08-24 14:02:00,
2013-08-24 09:03:00,72.5,64.5,29.18,North,4,0.0,0.0,76,0.00,,---,0.00,VWS V14.01,2013-08-24 14:03:00,
2013-08-24 09:04:00,72.5,64.5,29.18,North,4,0.0,0.0,76,0.00,,---,0.00,VWS V14.01,2013-08-24 14:04:00,
2013-08-24 09:05:00,72.5,64.5,29.18,North,4,0.0,0.0,76,0.00,,---,0.00,VWS V14.01,2013-08-24 14:05:00,
2013-08-24 09:06:00,72.5,64.5,29.18,North,4,0.0,0.0,76,0.00,,---,0.00,VWS V14.01,2013-08-24 14:06:00,
2013-08-24 09:07:00,72.5,64.5,29.18,North,4,0.0,0.0,76,0.00,,---,0.00,VWS V14.01,2013-08-24 14:07:00,
2013-08-24 09:08:00,72.5,64.5,29.18,North,4,0.0,0.0,76,0.00,,---,0.00,VWS V14.01,2013-08-24 14:08:00,
2013-08-24 09:09:00,72.5,64.5,29.18,North,4,0.0,0.0,76,0.00,,---,0.00,VWS V14.01,2013-08-24 14:09:00,
2013-08-24 09:10:00,72.5,63.4,29.18,North,4,0.0,0.0,73,0.00,,---,0.00,VWS V14.01,2013-08-24 14:10:00,
2013-08-24 09:11:00,72.7,63.5,29.18,North,4,0.0,0.0,73,0.00,,---,0.00,VWS V14.01,2013-08-24 14:11:00,
2013-08-24 09:12:00,72.7,63.5,29.18,North,4,0.0,0.0,73,0.00,,---,0.00,VWS V14.01,2013-08-24 14:12:00,
2013-08-24 09:13:00,72.7,63.1,29.20,North,4,0.0,0.0,72,0.00,,---,0.00,VWS V14.01,2013-08-24 14:13:00,
2013-08-24 09:14:00,72.7,63.1,29.21,North,4,0.0,0.0,72,0.00,,---,0.00,VWS V14.01,2013-08-24 14:14:00,
2013-08-24 09:15:00,72.7,63.1,29.20,North,4,0.0,0.0,72,0.00,,---,0.00,VWS V14.01,2013-08-24 14:15:00,
2013-08-24 09:16:00,72.9,63.3,29.20,North,4,0.0,0.0,72,0.00,,---,0.00,VWS V14.01,2013-08-24 14:16:00,
2013-08-24 09:17:00,72.9,63.3,29.21,North,4,0.0,0.0,72,0.00,,---,0.00,VWS V14.01,2013-08-24 14:17:00,
2013-08-24 09:18:00,73.2,63.7,29.20,North,4,0.0,0.0,72,0.00,,---,0.00,VWS V14.01,2013-08-24 14:18:00,
2013-08-24 09:19:00,73.2,63.7,29.21,North,4,0.0,0.0,72,0.00,,---,0.00,VWS V14.01,2013-08-24 14:19:00,
2013-08-24 09:20:00,73.9,64.3,29.20,North,4,0.0,0.0,72,0.00,,---,0.00,VWS V14.01,2013-08-24 14:20:00,
2013-08-24 09:21:00,73.9,64.3,29.20,North,4,0.0,0.0,72,0.00,,---,0.00,VWS V14.01,2013-08-24 14:21:00,
2013-08-24 09:22:00,73.9,64.3,29.21,North,4,0.0,0.0,72,0.00,,---,0.00,VWS V14.01,2013-08-24 14:22:00,
2013-08-24 09:23:00,73.9,64.3,29.21,North,4,0.0,0.0,72,0.00,,---,0.00,VWS V14.01,2013-08-24 14:23:00,
2013-08-24 09:24:00,73.9,64.3,29.21,North,4,0.0,0.0,72,0.00,,---,0.00,VWS V14.01,2013-08-24 14:24:00,
2013-08-24 09:25:00,73.9,64.3,29.20,North,4,0.0,0.0,72,0.00,,---,0.00,VWS V14.01,2013-08-24 14:25:00,
2013-08-24 09:26:00,73.9,64.3,29.20,North,4,0.0,0.0,72,0.00,,---,0.00,VWS V14.01,2013-08-24 14:26:00,
2013-08-24 09:27:00,75.2,64.8,29.21,SSE,164,0.0,0.0,70,0.00,,---,0.00,VWS V14.01,2013-08-24 14:27:00,
2013-08-24 09:28:00,75.2,64.8,29.21,SSE,164,0.0,0.0,70,0.00,,---,0.00,VWS V14.01,2013-08-24 14:28:00,
2013-08-24 09:29:00,75.4,64.5,29.21,NNE,22,0.0,0.0,69,0.00,,---,0.00,VWS V14.01,2013-08-24 14:29:00,
2013-08-24 09:30:00,75.6,64.3,29.20,NE,50,0.0,0.0,68,0.00,,---,0.00,VWS V14.01,2013-08-24 14:30:00,
2013-08-24 09:31:00,75.7,64.4,29.20,NE,50,0.0,0.0,68,0.00,,---,0.00,VWS V14.01,2013-08-24 14:31:00,
2013-08-24 09:32:00,76.5,64.7,29.21,NE,50,0.0,0.0,67,0.00,,---,0.00,VWS V14.01,2013-08-24 14:32:00,
2013-08-24 09:33:00,76.5,64.7,29.21,NE,50,0.0,0.0,67,0.00,,---,0.00,VWS V14.01,2013-08-24 14:33:00,
2013-08-24 09:34:00,76.6,64.9,29.21,NE,50,0.0,0.0,67,0.00,,---,0.00,VWS V14.01,2013-08-24 14:34:00,
2013-08-24 09:35:00,77.0,64.8,29.21,NE,50,0.0,0.0,66,0.00,,---,0.00,VWS V14.01,2013-08-24 14:35:00,
2013-08-24 09:36:00,77.2,64.9,29.20,NE,50,0.0,0.0,66,0.00,,---,0.00,VWS V14.01,2013-08-24 14:36:00,
2013-08-24 09:37:00,77.2,59.8,29.21,NE,50,0.0,0.0,55,0.00,,---,0.00,VWS V14.01,2013-08-24 14:37:00,
2013-08-24 09:38:00,77.2,59.8,29.21,NE,50,0.0,0.0,55,0.00,,---,0.00,VWS V14.01,2013-08-24 14:38:00,
2013-08-24 09:39:00,77.9,61.5,29.21,NE,50,0.0,0.0,57,0.00,,---,0.00,VWS V14.01,2013-08-24 14:39:00,
2013-08-24 09:40:00,77.9,61.5,29.21,NNE,30,2.7,3.1,57,0.00,,---,0.00,VWS V14.01,2013-08-24 14:40:00,
2013-08-24 09:41:00,78.3,59.7,29.20,NNE,30,0.0,2.7,53,0.00,,---,0.00,VWS V14.01,2013-08-24 14:41:00,
2013-08-24 09:42:00,78.3,59.7,29.21,NNE,30,2.7,3.1,53,0.00,,---,0.00,VWS V14.01,2013-08-24 14:42:00,
2013-08-24 09:43:00,78.3,59.7,29.21,NNE,30,0.0,3.1,53,0.00,,---,0.00,VWS V14.01,2013-08-24 14:43:00,
2013-08-24 09:44:00,78.3,56.4,29.21,West,265,2.7,3.1,47,0.00,,---,0.00,VWS V14.01,2013-08-24 14:44:00,
2013-08-24 09:45:00,78.3,56.4,29.21,West,276,3.6,3.6,47,0.00,,---,0.00,VWS V14.01,2013-08-24 14:45:00,
2013-08-24 09:46:00,78.3,56.4,29.20,West,281,2.2,3.6,47,0.00,,---,0.00,VWS V14.01,2013-08-24 14:46:00,
2013-08-24 09:47:00,78.4,55.4,29.20,West,281,0.0,2.2,45,0.00,,---,0.00,VWS V14.01,2013-08-24 14:47:00,
2013-08-24 09:48:00,78.4,55.4,29.21,West,281,0.0,0.0,45,0.00,,---,0.00,VWS V14.01,2013-08-24 14:48:00,
2013-08-24 09:49:00,78.4,55.4,29.21,West,281,0.0,0.0,45,0.00,,---,0.00,VWS V14.01,2013-08-24 14:49:00,
2013-08-24 09:50:00,78.4,55.4,29.21,West,281,0.0,0.0,45,0.00,,---,0.00,VWS V14.01,2013-08-24 14:50:00,
2013-08-24 09:51:00,78.4,55.4,29.20,West,281,0.0,0.0,45,0.00,,---,0.00,VWS V14.01,2013-08-24 14:51:00,
2013-08-24 09:52:00,78.4,55.4,29.20,SSW,203,2.7,3.1,45,0.00,,---,0.00,VWS V14.01,2013-08-24 14:52:00,
2013-08-24 09:53:00,79.0,56.5,29.21,SSW,203,0.0,0.0,46,0.00,,---,0.00,VWS V14.01,2013-08-24 14:53:00,
2013-08-24 09:54:00,79.0,56.5,29.21,SSW,203,0.0,0.0,46,0.00,,---,0.00,VWS V14.01,2013-08-24 14:54:00,
2013-08-24 09:55:00,79.3,56.2,29.21,SSW,203,0.0,0.0,45,0.00,,---,0.00,VWS V14.01,2013-08-24 14:55:00,
2013-08-24 09:56:00,79.7,57.1,29.20,SSW,203,0.0,0.0,46,0.00,,---,0.00,VWS V14.01,2013-08-24 14:56:00,
2013-08-24 09:57:00,79.9,57.3,29.20,SSW,203,0.0,0.0,46,0.00,,---,0.00,VWS V14.01,2013-08-24 14:57:00,
2013-08-24 09:58:00,80.4,57.8,29.21,SE,140,2.2,2.2,46,0.00,,---,0.00,VWS V14.01,2013-08-24 14:58:00,
2013-08-24 09:59:00,80.4,57.8,29.21,SE,140,2.2,2.2,46,0.00,,---,0.00,VWS V14.01,2013-08-24 14:59:00,
2013-08-24 10:00:00,80.4,57.8,29.21,SE,140,0.0,2.2,46,0.00,,---,0.00,VWS V14.01,2013-08-24 15:00:00,
2013-08-24 10:01:00,80.8,56.9,29.20,South,178,2.7,2.7,44,0.00,,---,0.00,VWS V14.01,2013-08-24 15:01:00,
2013-08-24 10:02:00,80.8,56.9,29.20,South,169,4.0,4.0,44,0.00,,---,0.00,VWS V14.01,2013-08-24 15:02:00,
2013-08-24 10:03:00,81.0,55.7,29.20,SSW,197,2.2,4.0,42,0.00,,---,0.00,VWS V14.01,2013-08-24 15:03:00,
2013-08-24 10:04:00,81.1,55.9,29.21,South,171,3.6,3.6,42,0.00,,---,0.00,VWS V14.01,2013-08-24 15:04:00,
2013-08-24 10:05:00,81.1,55.9,29.21,SSE,153,2.7,3.6,42,0.00,,---,0.00,VWS V14.01,2013-08-24 15:05:00,
2013-08-24 10:06:00,81.1,55.9,29.21,South,175,3.6,3.6,42,0.00,,---,0.00,VWS V14.01,2013-08-24 15:06:00,
2013-08-24 10:07:00,81.1,55.9,29.20,South,173,4.0,4.0,42,0.00,,---,0.00,VWS V14.01,2013-08-24 15:07:00,
2013-08-24 10:08:00,81.1,55.9,29.20,SSE,154,3.1,4.0,42,0.00,,---,0.00,VWS V14.01,2013-08-24 15:08:00,
2013-08-24 10:09:00,81.5,54.2,29.21,SE,143,0.0,3.1,39,0.00,,---,0.00,VWS V14.01,2013-08-24 15:09:00,
2013-08-24 10:10:00,81.7,54.3,29.21,SE,143,0.0,0.0,39,0.00,,---,0.00,VWS V14.01,2013-08-24 15:10:00,
2013-08-24 10:11:00,81.7,54.3,29.21,SE,143,0.0,0.0,39,0.00,,---,0.00,VWS V14.01,2013-08-24 15:11:00,
2013-08-24 10:12:00,81.7,54.3,29.20,SSW,196,0.0,0.0,39,0.00,,---,0.00,VWS V14.01,2013-08-24 15:12:00,
2013-08-24 10:13:00,82.2,54.8,29.20,South,180,2.2,2.2,39,0.00,,---,0.00,VWS V14.01,2013-08-24 15:13:00,
2013-08-24 10:14:00,82.2,54.8,29.21,South,181,2.2,3.6,39,0.00,,---,0.00,VWS V14.01,2013-08-24 15:14:00,
2013-08-24 10:15:00,82.2,54.8,29.21,South,181,0.0,0.0,39,0.00,,---,0.00,VWS V14.01,2013-08-24 15:15:00,
2013-08-24 10:16:00,82.2,54.8,29.21,South,181,0.0,0.0,39,0.00,,---,0.00,VWS V14.01,2013-08-24 15:16:00,
2013-08-24 10:17:00,82.2,54.8,29.20,SSE,159,0.0,0.0,39,0.00,,---,0.00,VWS V14.01,2013-08-24 15:17:00,
2013-08-24 10:18:00,82.2,54.8,29.20,SSW,206,2.2,2.2,39,0.00,,---,0.00,VWS V14.01,2013-08-24 15:18:00,
2013-08-24 10:19:00,82.9,53.3,29.21,ENE,69,2.2,2.2,36,0.00,,---,0.00,VWS V14.01,2013-08-24 15:19:00,
2013-08-24 10:20:00,83.1,53.4,29.21,North,357,3.1,3.1,36,0.00,,---,0.00,VWS V14.01,2013-08-24 15:20:00,
2013-08-24 10:21:00,83.1,54.2,29.21,North,357,3.1,3.1,37,0.00,,---,0.00,VWS V14.01,2013-08-24 15:21:00,
2013-08-24 10:22:00,83.3,54.3,29.20,SE,135,0.0,3.1,37,0.00,,---,0.00,VWS V14.01,2013-08-24 15:22:00,
2013-08-24 10:23:00,83.3,53.6,29.20,SE,135,0.0,0.0,36,0.00,,---,0.00,VWS V14.01,2013-08-24 15:23:00,
2013-08-24 10:24:00,83.5,53.8,29.21,WSW,239,2.7,3.6,36,0.00,,---,0.00,VWS V14.01,2013-08-24 15:24:00,
2013-08-24 10:25:00,83.5,53.8,29.21,WSW,239,2.7,3.6,36,0.00,,---,0.00,VWS V14.01,2013-08-24 15:25:00,
2013-08-24 10:26:00,83.7,53.1,29.21,South,176,4.9,6.3,35,0.00,,---,0.00,VWS V14.01,2013-08-24 15:26:00,
2013-08-24 10:27:00,83.7,53.1,29.20,South,178,4.0,5.4,35,0.00,,---,0.00,VWS V14.01,2013-08-24 15:27:00,
2013-08-24 10:28:00,83.7,53.1,29.20,South,179,3.1,4.0,35,0.00,,---,0.00,VWS V14.01,2013-08-24 15:28:00,
2013-08-24 10:29:00,84.0,51.8,29.21,South,180,0.0,3.6,33,0.00,,---,0.00,VWS V14.01,2013-08-24 15:29:00,
2013-08-24 10:30:00,84.0,51.8,29.21,South,180,0.0,3.6,33,0.00,,---,0.00,VWS V14.01,2013-08-24 15:30:00,
2013-08-24 10:31:00,84.2,52.0,29.21,SE,144,2.2,2.2,33,0.00,,---,0.00,VWS V14.01,2013-08-24 15:31:00,
2013-08-24 10:32:00,84.2,52.0,29.21,South,177,3.1,3.1,33,0.00,,---,0.00,VWS V14.01,2013-08-24 15:32:00,
2013-08-24 10:33:00,84.6,52.3,29.20,South,180,0.0,4.0,33,0.00,,---,0.00,VWS V14.01,2013-08-24 15:33:00,
2013-08-24 10:34:00,84.6,52.3,29.21,South,180,0.0,0.0,33,0.00,,---,0.00,VWS V14.01,2013-08-24 15:34:00,
2013-08-24 10:35:00,84.6,52.3,29.21,South,180,0.0,0.0,33,0.00,,---,0.00,VWS V14.01,2013-08-24 15:35:00,
2013-08-24 10:36:00,84.6,52.3,29.21,ESE,102,0.0,0.0,33,0.00,,---,0.00,VWS V14.01,2013-08-24 15:36:00,
2013-08-24 10:37:00,84.6,52.3,29.21,SSE,164,3.1,3.1,33,0.00,,---,0.00,VWS V14.01,2013-08-24 15:37:00,
2013-08-24 10:38:00,84.9,51.8,29.20,SSE,148,0.0,0.0,32,0.00,,---,0.00,VWS V14.01,2013-08-24 15:38:00,
2013-08-24 10:39:00,84.9,52.6,29.20,South,178,2.7,2.7,33,0.00,,---,0.00,VWS V14.01,2013-08-24 15:39:00,
2013-08-24 10:40:00,84.7,52.5,29.21,SE,133,2.2,2.7,33,0.00,,---,0.00,VWS V14.01,2013-08-24 15:40:00,
2013-08-24 10:41:00,84.7,52.5,29.21,SSE,147,0.0,4.0,33,0.00,,---,0.00,VWS V14.01,2013-08-24 15:41:00,
2013-08-24 10:42:00,84.9,52.6,29.21,SSE,147,0.0,0.0,33,0.00,,---,0.00,VWS V14.01,2013-08-24 15:42:00,
2013-08-24 10:43:00,85.1,54.4,29.20,SSE,147,0.0,0.0,35,0.00,,---,0.00,VWS V14.01,2013-08-24 15:43:00,
2013-08-24 10:44:00,84.9,52.6,29.20,ENE,75,0.0,3.1,33,0.00,,---,0.00,VWS V14.01,2013-08-24 15:44:00,
2013-08-24 10:45:00,85.1,53.6,29.21,ENE,75,0.0,0.0,34,0.00,,---,0.00,VWS V14.01,2013-08-24 15:45:00,
2013-08-24 10:46:00,85.1,52.8,29.21,SSE,168,2.2,2.2,33,0.00,,---,0.00,VWS V14.01,2013-08-24 15:46:00,
2013-08-24 10:47:00,85.1,52.8,29.21,SSE,155,0.0,2.2,33,0.00,,---,0.00,VWS V14.01,2013-08-24 15:47:00,
2013-08-24 10:48:00,84.9,51.8,29.20,SSE,155,0.0,0.0,32,0.00,,---,0.00,VWS V14.01,2013-08-24 15:48:00,
2013-08-24 10:49:00,84.7,50.8,29.20,West,277,0.0,2.7,31,0.00,,---,0.00,VWS V14.01,2013-08-24 15:49:00,
2013-08-24 10:50:00,84.7,50.8,29.21,West,277,0.0,0.0,31,0.00,,---,0.00,VWS V14.01,2013-08-24 15:50:00,
2013-08-24 10:51:00,84.9,50.9,29.21,South,190,0.0,0.0,31,0.00,,---,0.00,VWS V14.01,2013-08-24 15:51:00,
2013-08-24 10:52:00,84.9,50.9,29.21,South,190,0.0,0.0,31,0.00,,---,0.00,VWS V14.01,2013-08-24 15:52:00,
2013-08-24 10:53:00,84.9,50.9,29.20,South,190,0.0,0.0,31,0.00,,---,0.00,VWS V14.01,2013-08-24 15:53:00,
2013-08-24 10:54:00,84.9,50.9,29.20,South,190,0.0,0.0,31,0.00,,---,0.00,VWS V14.01,2013-08-24 15:54:00,
2013-08-24 10:55:00,84.9,50.9,29.21,SSW,204,0.0,2.7,31,0.00,,---,0.00,VWS V14.01,2013-08-24 15:55:00,
2013-08-24 10:56:00,84.9,50.9,29.20,SSE,147,0.0,0.0,31,0.00,,---,0.00,VWS V14.01,2013-08-24 15:56:00,
2013-08-24 10:57:00,85.8,52.6,29.21,NNE,29,4.9,4.9,32,0.00,,---,0.00,VWS V14.01,2013-08-24 15:57:00,
2013-08-24 10:58:00,85.8,52.6,29.20,NNE,20,0.0,4.9,32,0.00,,---,0.00,VWS V14.01,2013-08-24 15:58:00,
2013-08-24 10:59:00,86.2,51.2,29.20,NNE,20,0.0,0.0,30,0.00,,---,0.00,VWS V14.01,2013-08-24 15:59:00,
2013-08-24 11:00:00,86.2,51.1,29.21,West,272,3.6,4.0,30,0.00,,---,0.00,VWS V14.01,2013-08-24 16:00:00,
2013-08-24 11:01:00,86.2,51.1,29.21,SSW,206,2.7,3.6,30,0.00,,---,0.00,VWS V14.01,2013-08-24 16:01:00,
2013-08-24 11:02:00,86.2,51.1,29.21,SSE,163,5.4,5.8,30,0.00,,---,0.00,VWS V14.01,2013-08-24 16:02:00,
2013-08-24 11:03:00,86.2,51.2,29.20,South,181,4.5,6.3,30,0.00,,---,0.00,VWS V14.01,2013-08-24 16:03:00,
2013-08-24 11:04:00,86.0,49.1,29.20,SSE,147,3.6,4.5,28,0.00,,---,0.00,VWS V14.01,2013-08-24 16:04:00,
2013-08-24 11:05:00,86.2,49.3,29.21,SSE,161,3.1,3.1,28,0.00,,---,0.00,VWS V14.01,2013-08-24 16:05:00,
2013-08-24 11:06:00,86.4,49.4,29.21,SE,136,5.8,5.8,28,0.00,,---,0.00,VWS V14.01,2013-08-24 16:06:00,
2013-08-24 11:07:00,86.4,50.4,29.21,SW,216,2.7,2.7,29,0.00,,---,0.00,VWS V14.01,2013-08-24 16:07:00,
2013-08-24 11:08:00,86.5,50.5,29.20,ESE,118,2.2,2.7,29,0.00,,---,0.00,VWS V14.01,2013-08-24 16:08:00,
2013-08-24 11:09:00,86.7,50.7,29.20,SSE,165,0.0,4.9,29,0.00,,---,0.00,VWS V14.01,2013-08-24 16:09:00,
2013-08-24 11:10:00,86.5,50.5,29.20,SSE,168,0.0,0.0,29,0.00,,---,0.00,VWS V14.01,2013-08-24 16:10:00,
2013-08-24 11:11:00,86.5,50.5,29.21,SSE,168,0.0,0.0,29,0.00,,---,0.00,VWS V14.01,2013-08-24 16:11:00,
2013-08-24 11:12:00,86.7,49.8,29.21,ESE,120,0.0,0.0,28,0.00,,---,0.00,VWS V14.01,2013-08-24 16:12:00,
2013-08-24 11:13:00,86.7,49.8,29.20,North,8,2.7,2.7,28,0.00,,---,0.00,VWS V14.01,2013-08-24 16:13:00,
2013-08-24 11:14:00,86.9,49.9,29.20,North,8,0.0,2.7,28,0.00,,---,0.00,VWS V14.01,2013-08-24 16:14:00,
2013-08-24 11:15:00,86.9,49.9,29.20,North,8,0.0,0.0,28,0.00,,---,0.00,VWS V14.01,2013-08-24 16:15:00,
2013-08-24 11:16:00,86.9,49.9,29.21,South,176,0.0,4.0,28,0.00,,---,0.00,VWS V14.01,2013-08-24 16:16:00,
2013-08-24 11:17:00,87.1,50.1,29.21,SSE,165,3.1,3.1,28,0.00,,---,0.00,VWS V14.01,2013-08-24 16:17:00,
2013-08-24 11:18:00,87.1,50.1,29.20,South,190,0.0,3.1,28,0.00,,---,0.00,VWS V14.01,2013-08-24 16:18:00,
2013-08-24 11:19:00,87.1,50.1,29.20,South,171,4.0,4.0,28,0.00,,---,0.00,VWS V14.01,2013-08-24 16:19:00,
2013-08-24 11:20:00,87.1,49.1,29.20,NW,305,4.0,5.8,27,0.00,,---,0.00,VWS V14.01,2013-08-24 16:20:00,
2013-08-24 11:21:00,87.1,49.1,29.21,SE,126,2.7,2.7,27,0.00,,---,0.00,VWS V14.01,2013-08-24 16:21:00,
2013-08-24 11:22:00,87.1,49.1,29.21,SE,126,0.0,2.7,27,0.00,,---,0.00,VWS V14.01,2013-08-24 16:22:00,
2013-08-24 11:23:00,87.4,51.3,29.20,South,190,0.0,0.0,29,0.00,,---,0.00,VWS V14.01,2013-08-24 16:23:00,
2013-08-24 11:24:00,87.4,51.3,29.20,ENE,71,0.0,0.0,29,0.00,,---,0.00,VWS V14.01,2013-08-24 16:24:00,
2013-08-24 11:25:00,87.4,51.3,29.20,ENE,64,0.0,0.0,29,0.00,,---,0.00,VWS V14.01,2013-08-24 16:25:00,
2013-08-24 11:26:00,88.0,50.8,29.18,NNE,12,0.0,2.2,28,0.00,,---,0.00,VWS V14.01,2013-08-24 16:26:00,
2013-08-24 11:27:00,88.0,50.8,29.18,NNE,12,0.0,2.2,28,0.00,,---,0.00,VWS V14.01,2013-08-24 16:27:00,
2013-08-24 11:28:00,87.8,50.7,29.18,NNE,12,0.0,0.0,28,0.00,,---,0.00,VWS V14.01,2013-08-24 16:28:00,
2013-08-24 11:29:00,88.0,51.8,29.18,NNE,12,0.0,0.0,29,0.00,,---,0.00,VWS V14.01,2013-08-24 16:29:00,
2013-08-24 11:30:00,87.8,51.6,29.18,NNE,12,0.0,0.0,29,0.00,,---,0.00,VWS V14.01,2013-08-24 16:30:00,
2013-08-24 11:31:00,88.0,50.8,29.18,SE,136,0.0,0.0,28,0.00,,---,0.00,VWS V14.01,2013-08-24 16:31:00,
2013-08-24 11:32:00,88.2,51.0,29.18,SE,136,0.0,0.0,28,0.00,,---,0.00,VWS V14.01,2013-08-24 16:32:00,
2013-08-24 11:33:00,88.2,51.0,29.18,East,88,0.0,2.7,28,0.00,,---,0.00,VWS V14.01,2013-08-24 16:33:00,
2013-08-24 11:34:00,88.0,46.7,29.18,NE,49,3.1,3.1,24,0.00,,---,0.00,VWS V14.01,2013-08-24 16:34:00,
2013-08-24 11:35:00,88.0,46.7,29.18,SSE,149,2.7,3.1,24,0.00,,---,0.00,VWS V14.01,2013-08-24 16:35:00,
2013-08-24 11:36:00,88.2,50.0,29.18,East,92,5.4,5.4,27,0.00,,---,0.00,VWS V14.01,2013-08-24 16:36:00,
2013-08-24 11:37:00,88.2,51.0,29.18,ENE,72,0.0,0.0,28,0.00,,---,0.00,VWS V14.01,2013-08-24 16:37:00,
2013-08-24 11:38:00,88.2,51.0,29.18,South,178,0.0,0.0,28,0.00,,---,0.00,VWS V14.01,2013-08-24 16:38:00,
2013-08-24 11:39:00,88.2,51.0,29.18,SSE,166,2.7,5.4,28,0.00,,---,0.00,VWS V14.01,2013-08-24 16:39:00,
2013-08-24 11:40:00,88.3,48.1,29.18,South,176,4.9,4.9,25,0.00,,---,0.00,VWS V14.01,2013-08-24 16:40:00,
2013-08-24 11:41:00,88.3,48.1,29.18,SE,132,3.1,3.1,25,0.00,,---,0.00,VWS V14.01,2013-08-24 16:41:00,
2013-08-24 11:42:00,88.3,48.1,29.18,SSE,158,2.2,2.2,25,0.00,,---,0.00,VWS V14.01,2013-08-24 16:42:00,
2013-08-24 11:43:00,88.2,51.0,29.18,SSE,158,2.2,2.2,28,0.00,,---,0.00,VWS V14.01,2013-08-24 16:43:00,
2013-08-24 11:44:00,88.2,51.0,29.18,SSE,165,2.7,4.0,28,0.00,,---,0.00,VWS V14.01,2013-08-24 16:44:00,
2013-08-24 11:45:00,87.8,50.7,29.18,SSE,167,0.0,2.7,28,0.00,,---,0.00,VWS V14.01,2013-08-24 16:45:00,
2013-08-24 11:46:00,87.8,50.7,29.18,South,178,0.0,2.7,28,0.00,,---,0.00,VWS V14.01,2013-08-24 16:46:00,
2013-08-24 11:47:00,87.8,50.7,29.18,North,357,0.0,0.0,28,0.00,,---,0.00,VWS V14.01,2013-08-24 16:47:00,
2013-08-24 11:48:00,87.8,50.7,29.18,North,357,0.0,0.0,28,0.00,,---,0.00,VWS V14.01,2013-08-24 16:48:00,
2013-08-24 11:49:00,88.0,48.8,29.18,NNW,332,0.0,2.7,26,0.00,,---,0.00,VWS V14.01,2013-08-24 16:49:00,
2013-08-24 11:50:00,88.0,48.8,29.18,South,175,2.7,2.7,26,0.00,,---,0.00,VWS V14.01,2013-08-24 16:50:00,
2013-08-24 11:51:00,88.2,51.0,29.18,South,174,3.6,3.6,28,0.00,,---,0.00,VWS V14.01,2013-08-24 16:51:00,
2013-08-24 11:52:00,88.2,51.0,29.18,East,98,4.0,4.0,28,0.00,,---,0.00,VWS V14.01,2013-08-24 16:52:00,
2013-08-24 11:53:00,88.2,51.0,29.18,South,184,3.6,4.0,28,0.00,,---,0.00,VWS V14.01,2013-08-24 16:53:00,
2013-08-24 11:54:00,87.8,45.4,29.18,SSE,158,2.7,4.0,23,0.00,,---,0.00,VWS V14.01,2013-08-24 16:54:00,
2013-08-24 11:55:00,87.6,47.5,29.18,SSE,147,2.7,2.7,25,0.00,,---,0.00,VWS V14.01,2013-08-24 16:55:00,
2013-08-24 11:56:00,87.4,48.4,29.18,SE,140,2.2,2.2,26,0.00,,---,0.00,VWS V14.01,2013-08-24 16:56:00,
2013-08-24 11:57:00,87.4,48.4,29.18,SE,140,0.0,0.0,26,0.00,,---,0.00,VWS V14.01,2013-08-24 16:57:00,
2013-08-24 11:58:00,87.4,48.4,29.18,SE,140,0.0,0.0,26,0.00,,---,0.00,VWS V14.01,2013-08-24 16:58:00,
2013-08-24 11:59:00,87.6,48.5,29.18,SE,140,0.0,0.0,26,0.00,,---,0.00,VWS V14.01,2013-08-24 16:59:00,
2013-08-24 12:00:00,87.6,48.5,29.18,SE,140,2.7,2.7,26,0.00,,---,0.00,VWS V14.01,2013-08-24 17:00:00,
2013-08-24 12:01:00,87.6,48.5,29.18,SSW,193,3.1,4.0,26,0.00,,---,0.00,VWS V14.01,2013-08-24 17:01:00,
2013-08-24 12:02:00,87.6,48.5,29.18,SE,139,3.6,3.6,26,0.00,,---,0.00,VWS V14.01,2013-08-24 17:02:00,
2013-08-24 12:03:00,87.6,48.5,29.18,SSE,165,3.1,3.6,26,0.00,,---,0.00,VWS V14.01,2013-08-24 17:03:00,
2013-08-24 12:04:00,87.6,48.5,29.18,South,187,3.1,3.1,26,0.00,,---,0.00,VWS V14.01,2013-08-24 17:04:00,
2013-08-24 12:05:00,87.6,48.5,29.18,SSE,163,3.1,3.1,26,0.00,,---,0.00,VWS V14.01,2013-08-24 17:05:00,
2013-08-24 12:06:00,87.1,50.1,29.18,South,182,2.7,3.1,28,0.00,,---,0.00,VWS V14.01,2013-08-24 17:06:00,
2013-08-24 12:07:00,87.1,50.1,29.18,SE,138,2.7,3.1,28,0.00,,---,0.00,VWS V14.01,2013-08-24 17:07:00,
2013-08-24 12:08:00,87.1,50.1,29.18,SE,141,2.7,2.7,28,0.00,,---,0.00,VWS V14.01,2013-08-24 17:08:00,
2013-08-24 12:09:00,86.5,49.6,29.18,ESE,109,0.0,2.7,28,0.00,,---,0.00,VWS V14.01,2013-08-24 17:09:00,
2013-08-24 12:10:00,86.5,49.6,29.18,ESE,109,0.0,0.0,28,0.00,,---,0.00,VWS V14.01,2013-08-24 17:10:00,
2013-08-24 12:11:00,86.5,49.6,29.18,SSE,156,3.1,3.1,28,0.00,,---,0.00,VWS V14.01,2013-08-24 17:11:00,
2013-08-24 12:12:00,86.4,49.4,29.18,SE,145,2.7,2.7,28,0.00,,---,0.00,VWS V14.01,2013-08-24 17:12:00,
2013-08-24 12:13:00,86.4,49.4,29.18,South,176,2.7,2.7,28,0.00,,---,0.00,VWS V14.01,2013-08-24 17:13:00,
2013-08-24 12:14:00,86.4,49.4,29.18,South,186,2.7,2.7,28,0.00,,---,0.00,VWS V14.01,2013-08-24 17:14:00,
2013-08-24 12:15:00,86.2,49.3,29.18,SE,137,2.7,2.7,28,0.00,,---,0.00,VWS V14.01,2013-08-24 17:15:00,
2013-08-24 12:16:00,86.4,50.4,29.18,East,99,2.2,3.1,29,0.00,,---,0.00,VWS V14.01,2013-08-24 17:16:00,
2013-08-24 12:17:00,86.4,50.4,29.18,SSE,153,2.2,2.2,29,0.00,,---,0.00,VWS V14.01,2013-08-24 17:17:00,
2013-08-24 12:18:00,86.4,50.4,29.18,ESE,122,2.2,2.7,29,0.00,,---,0.00,VWS V14.01,2013-08-24 17:18:00,
2013-08-24 12:19:00,86.5,49.6,29.18,ESE,122,2.2,2.2,28,0.00,,---,0.00,VWS V14.01,2013-08-24 17:19:00,